Observation data for Colorado City on 11/19/2019      Previous  Date       Current Mesonet Observations  Soil Data  Daily Summary Page  Observations in Plain Language
KCO2 190600Z 09007KT 10/03 A2997 RMK A01 T00960026  RH  061%=      5-min Rain = 0
KCO2 190601Z 09007KT 10/03 A2997 RMK A01 T00950026  RH  062%=      5-min Rain = 0
KCO2 190602Z 09007KT 10/03 A2997 RMK A01 T00950026  RH  062%=      5-min Rain = 0
KCO2 190603Z 09007KT 10/03 A2997 RMK A01 T00950026  RH  062%=      5-min Rain = 0
KCO2 190604Z 09008KT 10/03 A2997 RMK A01 T00950026  RH  062%=      5-min Rain = 0
KCO2 190605Z 09008KT 10/03 A2997 RMK A01 T00950026  RH  062%=      5-min Rain = 0
KCO2 190606Z 09008KT 10/03 A2997 RMK A01 T00950026  RH  062%=      5-min Rain = 0
KCO2 190607Z 09008KT 10/03 A2997 RMK A01 T00960026  RH  062%=      5-min Rain = 0
KCO2 190608Z 09008KT 10/03 A2997 RMK A01 T00960026  RH  062%=      5-min Rain = 0
KCO2 190609Z 09008KT 10/03 A2997 RMK A01 T00970027  RH  062%=      5-min Rain = 0
KCO2 190610Z 09008KT 10/03 A2997 RMK A01 T00970027  RH  062%=      5-min Rain = 0
KCO2 190611Z 09009KT 10/03 A2996 RMK A01 T00970027  RH  062%=      5-min Rain = 0
KCO2 190612Z 09009KT 10/03 A2996 RMK A01 T00970027  RH  061%=      5-min Rain = 0
KCO2 190613Z 09009KT 10/03 A2996 RMK A01 T00980027  RH  061%=      5-min Rain = 0
KCO2 190614Z 09009KT 10/03 A2996 RMK A01 T00980027  RH  062%=      5-min Rain = 0
KCO2 190615Z 09009KT 10/03 A2996 RMK A01 T00980028  RH  062%=      5-min Rain = 0
KCO2 190616Z 09008KT 10/03 A2996 RMK A01 T00980028  RH  062%=      5-min Rain = 0
KCO2 190617Z 09009KT 10/03 A2996 RMK A01 T00980028  RH  061%=      5-min Rain = 0
KCO2 190618Z 09008KT 10/03 A2997 RMK A01 T00980028  RH  061%=      5-min Rain = 0
KCO2 190619Z 09008KT 10/03 A2997 RMK A01 T00990028  RH  061%=      5-min Rain = 0
KCO2 190620Z 09008KT 10/03 A2997 RMK A01 T01010028  RH  061%=      5-min Rain = 0
KCO2 190621Z 10007KT 10/03 A2997 RMK A01 T01020028  RH  060%=      5-min Rain = 0
KCO2 190622Z 10006KT 10/03 A2997 RMK A01 T01030028  RH  060%=      5-min Rain = 0
KCO2 190623Z 10007KT 10/03 A2997 RMK A01 T01030028  RH  060%=      5-min Rain = 0
KCO2 190624Z 10007KT 10/03 A2997 RMK A01 T01030028  RH  060%=      5-min Rain = 0
KCO2 190625Z 10007KT 10/03 A2997 RMK A01 T01020028  RH  060%=      5-min Rain = 0
KCO2 190626Z 10007KT 10/03 A2997 RMK A01 T01000027  RH  060%=      5-min Rain = 0
KCO2 190627Z 11007KT 10/03 A2997 RMK A01 T00990027  RH  061%=      5-min Rain = 0
KCO2 190628Z 11007KT 10/03 A2997 RMK A01 T00980027  RH  061%=      5-min Rain = 0
KCO2 190629Z 11007KT 10/03 A2997 RMK A01 T00970027  RH  062%=      5-min Rain = 0
KCO2 190630Z 12007KT 10/03 A2997 RMK A01 T00970027  RH  061%=      5-min Rain = 0
KCO2 190631Z 11007KT 10/03 A2997 RMK A01 T00970027  RH  061%=      5-min Rain = 0
KCO2 190632Z 11007KT 10/03 A2997 RMK A01 T00970027  RH  061%=      5-min Rain = 0
KCO2 190633Z 11006KT 10/03 A2997 RMK A01 T00970026  RH  061%=      5-min Rain = 0
KCO2 190634Z 11006KT 10/03 A2997 RMK A01 T00970026  RH  061%=      5-min Rain = 0
KCO2 190635Z 11006KT 10/03 A2997 RMK A01 T00960026  RH  062%=      5-min Rain = 0
KCO2 190636Z 11006KT 10/03 A2997 RMK A01 T00960026  RH  062%=      5-min Rain = 0
KCO2 190637Z 11006KT 10/03 A2997 RMK A01 T00960026  RH  062%=      5-min Rain = 0
KCO2 190638Z 10006KT 10/03 A2997 RMK A01 T00960026  RH  062%=      5-min Rain = 0
KCO2 190639Z 11006KT 10/03 A2997 RMK A01 T00960026  RH  062%=      5-min Rain = 0
KCO2 190640Z 11006KT 10/03 A2997 RMK A01 T00960026  RH  062%=      5-min Rain = 0
KCO2 190641Z 11006KT 10/03 A2997 RMK A01 T00960026  RH  062%=      5-min Rain = 0
KCO2 190642Z 11006KT 10/03 A2997 RMK A01 T00960026  RH  062%=      5-min Rain = 0
KCO2 190643Z 11006KT 10/03 A2997 RMK A01 T00960026  RH  062%=      5-min Rain = 0
KCO2 190644Z 11006KT 10/03 A2997 RMK A01 T00960026  RH  062%=      5-min Rain = 0
KCO2 190645Z 11006KT 10/03 A2997 RMK A01 T00950026  RH  062%=      5-min Rain = 0
KCO2 190646Z 11006KT 09/03 A2996 RMK A01 T00940026  RH  062%=      5-min Rain = 0
KCO2 190647Z 10006KT 09/03 A2996 RMK A01 T00930026  RH  063%=      5-min Rain = 0
KCO2 190648Z 10005KT 09/03 A2996 RMK A01 T00930026  RH  063%=      5-min Rain = 0
KCO2 190649Z 11005KT 09/03 A2996 RMK A01 T00930026  RH  063%=      5-min Rain = 0
KCO2 190650Z 11005KT 09/03 A2996 RMK A01 T00930025  RH  063%=      5-min Rain = 0
KCO2 190651Z 11005KT 09/03 A2996 RMK A01 T00930025  RH  063%=      5-min Rain = 0
KCO2 190652Z 11004KT 09/03 A2997 RMK A01 T00930025  RH  062%=      5-min Rain = 0
KCO2 190653Z 12004KT 09/03 A2997 RMK A01 T00920025  RH  063%=      5-min Rain = 0
KCO2 190654Z 12005KT 09/02 A2996 RMK A01 T00910024  RH  063%=      5-min Rain = 0
KCO2 190655Z 12005KT 09/02 A2996 RMK A01 T00900024  RH  063%=      5-min Rain = 0
KCO2 190656Z 11005KT 09/02 A2996 RMK A01 T00890024  RH  064%=      5-min Rain = 0
KCO2 190657Z 12005KT 09/02 A2996 RMK A01 T00880024  RH  064%=      5-min Rain = 0
KCO2 190658Z 11005KT 09/02 A2996 RMK A01 T00870024  RH  064%=      5-min Rain = 0
KCO2 190659Z 11005KT 09/02 A2996 RMK A01 T00860023  RH  065%=      5-min Rain = 0
KCO2 190700Z 11005KT 09/02 A2996 RMK A01 T00860024  RH  065%=      5-min Rain = 0
KCO2 190701Z 11005KT 09/02 A2996 RMK A01 T00870024  RH  064%=      5-min Rain = 0
KCO2 190702Z 11005KT 09/02 A2996 RMK A01 T00880024  RH  064%=      5-min Rain = 0
KCO2 190703Z 12005KT 09/02 A2996 RMK A01 T00890024  RH  064%=      5-min Rain = 0
KCO2 190704Z 12004KT 09/02 A2996 RMK A01 T00890024  RH  064%=      5-min Rain = 0
KCO2 190705Z 12004KT 09/03 A2996 RMK A01 T00890025  RH  064%=      5-min Rain = 0
KCO2 190706Z 13004KT 09/03 A2996 RMK A01 T00890025  RH  064%=      5-min Rain = 0
KCO2 190707Z 13004KT 09/03 A2996 RMK A01 T00890025  RH  064%=      5-min Rain = 0
KCO2 190708Z 13004KT 09/03 A2996 RMK A01 T00900025  RH  064%=      5-min Rain = 0
KCO2 190709Z 13004KT 09/03 A2996 RMK A01 T00900025  RH  064%=      5-min Rain = 0
KCO2 190710Z 13004KT 09/03 A2996 RMK A01 T00900025  RH  064%=      5-min Rain = 0
KCO2 190711Z 13004KT 09/03 A2996 RMK A01 T00900025  RH  064%=      5-min Rain = 0
KCO2 190712Z 13004KT 09/03 A2996 RMK A01 T00900025  RH  063%=      5-min Rain = 0
KCO2 190713Z 12004KT 09/03 A2996 RMK A01 T00900025  RH  064%=      5-min Rain = 0
KCO2 190714Z 12004KT 09/03 A2996 RMK A01 T00900025  RH  064%=      5-min Rain = 0
KCO2 190715Z 12004KT 09/03 A2996 RMK A01 T00900025  RH  064%=      5-min Rain = 0
KCO2 190716Z 11004KT 09/02 A2996 RMK A01 T00890024  RH  064%=      5-min Rain = 0
KCO2 190717Z 12004KT 09/02 A2996 RMK A01 T00890024  RH  064%=      5-min Rain = 0
KCO2 190718Z 11004KT 09/02 A2996 RMK A01 T00890024  RH  064%=      5-min Rain = 0
KCO2 190719Z 12004KT 09/02 A2996 RMK A01 T00890024  RH  064%=      5-min Rain = 0
KCO2 190720Z 12004KT 09/02 A2996 RMK A01 T00890024  RH  064%=      5-min Rain = 0
KCO2 190721Z 13004KT 09/03 A2996 RMK A01 T00890025  RH  064%=      5-min Rain = 0
KCO2 190722Z 14004KT 09/03 A2997 RMK A01 T00890025  RH  064%=      5-min Rain = 0
KCO2 190723Z 15004KT 09/03 A2997 RMK A01 T00890025  RH  064%=      5-min Rain = 0
KCO2 190724Z 16004KT 09/03 A2997 RMK A01 T00890025  RH  064%=      5-min Rain = 0
KCO2 190725Z 16004KT 09/02 A2997 RMK A01 T00860023  RH  065%=      5-min Rain = 0
KCO2 190726Z 16004KT 08/02 A2997 RMK A01 T00840023  RH  065%=      5-min Rain = 0
KCO2 190727Z 16004KT 08/02 A2997 RMK A01 T00840024  RH  066%=      5-min Rain = 0
KCO2 190728Z 16004KT 09/02 A2997 RMK A01 T00850024  RH  065%=      5-min Rain = 0
KCO2 190729Z 16004KT 09/02 A2997 RMK A01 T00850024  RH  066%=      5-min Rain = 0
KCO2 190730Z 17003KT 08/02 A2997 RMK A01 T00830022  RH  065%=      5-min Rain = 0
KCO2 190731Z 17003KT 08/02 A2997 RMK A01 T00790019  RH  066%=      5-min Rain = 0
KCO2 190732Z 17003KT 08/02 A2997 RMK A01 T00770022  RH  068%=      5-min Rain = 0
KCO2 190733Z 18003KT 08/02 A2997 RMK A01 T00790024  RH  068%=      5-min Rain = 0
KCO2 190734Z 17003KT 08/03 A2997 RMK A01 T00820025  RH  068%=      5-min Rain = 0
KCO2 190735Z 17003KT 08/03 A2997 RMK A01 T00840025  RH  066%=      5-min Rain = 0
KCO2 190736Z 17003KT 08/02 A2997 RMK A01 T00840023  RH  065%=      5-min Rain = 0
KCO2 190737Z 17003KT 08/02 A2997 RMK A01 T00830023  RH  066%=      5-min Rain = 0
KCO2 190738Z 16003KT 08/02 A2997 RMK A01 T00810021  RH  066%=      5-min Rain = 0
KCO2 190739Z 16003KT 08/02 A2997 RMK A01 T00800021  RH  067%=      5-min Rain = 0
KCO2 190740Z 16003KT 08/02 A2997 RMK A01 T00790023  RH  068%=      5-min Rain = 0
KCO2 190741Z 16003KT 08/02 A2997 RMK A01 T00790024  RH  068%=      5-min Rain = 0
KCO2 190742Z 16003KT 08/02 A2997 RMK A01 T00790023  RH  068%=      5-min Rain = 0
KCO2 190743Z 16002KT 08/02 A2997 RMK A01 T00780022  RH  068%=      5-min Rain = 0
KCO2 190744Z 16001KT 08/02 A2997 RMK A01 T00750018  RH  068%=      5-min Rain = 0
KCO2 190745Z 14002KT 07/02 A2997 RMK A01 T00730020  RH  069%=      5-min Rain = 0
KCO2 190746Z 14002KT 07/02 A2997 RMK A01 T00720021  RH  070%=      5-min Rain = 0
KCO2 190747Z 15002KT 07/02 A2997 RMK A01 T00710020  RH  070%=      5-min Rain = 0
KCO2 190748Z 15002KT 07/02 A2997 RMK A01 T00700020  RH  070%=      5-min Rain = 0
KCO2 190749Z 15003KT 07/02 A2997 RMK A01 T00710021  RH  071%=      5-min Rain = 0
KCO2 190750Z 16003KT 07/02 A2997 RMK A01 T00720022  RH  070%=      5-min Rain = 0
KCO2 190751Z 16003KT 07/02 A2997 RMK A01 T00730022  RH  070%=      5-min Rain = 0
KCO2 190752Z 16004KT 07/02 A2997 RMK A01 T00740023  RH  070%=      5-min Rain = 0
KCO2 190753Z 16004KT 08/02 A2997 RMK A01 T00750023  RH  070%=      5-min Rain = 0
KCO2 190754Z 17005KT 08/02 A2997 RMK A01 T00750024  RH  070%=      5-min Rain = 0
KCO2 190755Z 17004KT 08/03 A2997 RMK A01 T00770025  RH  069%=      5-min Rain = 0
KCO2 190756Z 17005KT 08/03 A2997 RMK A01 T00800025  RH  069%=      5-min Rain = 0
KCO2 190757Z 17005KT 08/03 A2997 RMK A01 T00830026  RH  067%=      5-min Rain = 0
KCO2 190758Z 17005KT 09/03 A2997 RMK A01 T00850025  RH  066%=      5-min Rain = 0
KCO2 190759Z 17005KT 09/02 A2997 RMK A01 T00850023  RH  065%=      5-min Rain = 0
KCO2 190800Z 17005KT 09/02 A2997 RMK A01 T00850023  RH  065%=      5-min Rain = 0
KCO2 190801Z 16005KT 09/02 A2997 RMK A01 T00850023  RH  065%=      5-min Rain = 0
KCO2 190802Z 16004KT 08/02 A2997 RMK A01 T00840022  RH  065%=      5-min Rain = 0
KCO2 190803Z 16005KT 08/02 A2997 RMK A01 T00840023  RH  066%=      5-min Rain = 0
KCO2 190804Z 16005KT 08/02 A2997 RMK A01 T00840024  RH  066%=      5-min Rain = 0
KCO2 190805Z 15005KT 08/02 A2997 RMK A01 T00830024  RH  066%=      5-min Rain = 0
KCO2 190806Z 16005KT 08/02 A2997 RMK A01 T00830024  RH  066%=      5-min Rain = 0
KCO2 190807Z 16005KT 08/03 A2997 RMK A01 T00830025  RH  067%=      5-min Rain = 0
KCO2 190808Z 16006KT 08/03 A2997 RMK A01 T00830025  RH  067%=      5-min Rain = 0
KCO2 190809Z 16006KT 08/03 A2997 RMK A01 T00820025  RH  067%=      5-min Rain = 0
KCO2 190810Z 16005KT 08/02 A2997 RMK A01 T00810024  RH  067%=      5-min Rain = 0
KCO2 190811Z 16005KT 08/02 A2997 RMK A01 T00810024  RH  068%=      5-min Rain = 0
KCO2 190812Z 16005KT 08/03 A2997 RMK A01 T00800025  RH  068%=      5-min Rain = 0
KCO2 190813Z 17005KT 08/03 A2998 RMK A01 T00800025  RH  068%=      5-min Rain = 0
KCO2 190814Z 17005KT 08/03 A2998 RMK A01 T00790025  RH  069%=      5-min Rain = 0
KCO2 190815Z 17005KT 08/03 A2998 RMK A01 T00790025  RH  069%=      5-min Rain = 0
KCO2 190816Z 17005KT 08/03 A2998 RMK A01 T00800025  RH  068%=      5-min Rain = 0
KCO2 190817Z 17005KT 08/03 A2998 RMK A01 T00800025  RH  068%=      5-min Rain = 0
KCO2 190818Z 17005KT 08/03 A2998 RMK A01 T00800025  RH  068%=      5-min Rain = 0
KCO2 190819Z 17005KT 08/02 A2998 RMK A01 T00800024  RH  068%=      5-min Rain = 0
KCO2 190820Z 17006KT 08/02 A2998 RMK A01 T00790024  RH  068%=      5-min Rain = 0
KCO2 190821Z 17005KT 08/02 A2998 RMK A01 T00790024  RH  068%=      5-min Rain = 0
KCO2 190822Z 16005KT 08/02 A2998 RMK A01 T00780024  RH  069%=      5-min Rain = 0
KCO2 190823Z 17006KT 08/02 A2998 RMK A01 T00780024  RH  069%=      5-min Rain = 0
KCO2 190824Z 17006KT 08/02 A2998 RMK A01 T00780024  RH  069%=      5-min Rain = 0
KCO2 190825Z 17006KT 08/02 A2998 RMK A01 T00770024  RH  069%=      5-min Rain = 0
KCO2 190826Z 16006KT 08/02 A2998 RMK A01 T00770024  RH  069%=      5-min Rain = 0
KCO2 190827Z 16006KT 08/02 A2998 RMK A01 T00760024  RH  070%=      5-min Rain = 0
KCO2 190828Z 16006KT 08/02 A2998 RMK A01 T00750024  RH  070%=      5-min Rain = 0
KCO2 190829Z 15006KT 08/02 A2998 RMK A01 T00750024  RH  070%=      5-min Rain = 0
KCO2 190830Z 16006KT 07/03 A2998 RMK A01 T00740025  RH  071%=      5-min Rain = 0
KCO2 190831Z 16006KT 07/03 A2998 RMK A01 T00740025  RH  071%=      5-min Rain = 0
KCO2 190832Z 15006KT 07/02 A2998 RMK A01 T00730024  RH  071%=      5-min Rain = 0
KCO2 190833Z 15006KT 07/03 A2998 RMK A01 T00730025  RH  071%=      5-min Rain = 0
KCO2 190834Z 15006KT 07/03 A2998 RMK A01 T00730025  RH  071%=      5-min Rain = 0
KCO2 190835Z 14006KT 07/02 A2998 RMK A01 T00730024  RH  071%=      5-min Rain = 0
KCO2 190836Z 14006KT 07/03 A2998 RMK A01 T00730025  RH  072%=      5-min Rain = 0
KCO2 190837Z 14006KT 07/03 A2998 RMK A01 T00730025  RH  072%=      5-min Rain = 0
KCO2 190838Z 14006KT 07/03 A2998 RMK A01 T00730025  RH  072%=      5-min Rain = 0
KCO2 190839Z 14006KT 07/03 A2998 RMK A01 T00730025  RH  072%=      5-min Rain = 0
KCO2 190840Z 14006KT 07/03 A2998 RMK A01 T00730026  RH  072%=      5-min Rain = 0
KCO2 190841Z 14006KT 07/03 A2998 RMK A01 T00720026  RH  072%=      5-min Rain = 0
KCO2 190842Z 14006KT 07/03 A2998 RMK A01 T00720026  RH  072%=      5-min Rain = 0
KCO2 190843Z 14006KT 07/03 A2998 RMK A01 T00720026  RH  073%=      5-min Rain = 0
KCO2 190844Z 14006KT 07/03 A2998 RMK A01 T00700026  RH  073%=      5-min Rain = 0
KCO2 190845Z 15006KT 07/03 A2998 RMK A01 T00690025  RH  073%=      5-min Rain = 0
KCO2 190846Z 14006KT 07/03 A2998 RMK A01 T00690025  RH  074%=      5-min Rain = 0
KCO2 190847Z 14006KT 07/03 A2998 RMK A01 T00680025  RH  074%=      5-min Rain = 0
KCO2 190848Z 14006KT 07/03 A2998 RMK A01 T00680025  RH  074%=      5-min Rain = 0
KCO2 190849Z 14006KT 07/02 A2998 RMK A01 T00670024  RH  074%=      5-min Rain = 0
KCO2 190850Z 14006KT 07/02 A2998 RMK A01 T00670024  RH  074%=      5-min Rain = 0
KCO2 190851Z 14006KT 07/02 A2998 RMK A01 T00670024  RH  074%=      5-min Rain = 0
KCO2 190852Z 14006KT 07/02 A2998 RMK A01 T00670024  RH  074%=      5-min Rain = 0
KCO2 190853Z 14005KT 07/02 A2998 RMK A01 T00680024  RH  074%=      5-min Rain = 0
KCO2 190854Z 14006KT 07/02 A2998 RMK A01 T00670024  RH  074%=      5-min Rain = 0
KCO2 190855Z 14005KT 07/02 A2998 RMK A01 T00670024  RH  074%=      5-min Rain = 0
KCO2 190856Z 13005KT 07/02 A2998 RMK A01 T00670024  RH  074%=      5-min Rain = 0
KCO2 190857Z 13006KT 07/02 A2998 RMK A01 T00670024  RH  074%=      5-min Rain = 0
KCO2 190858Z 13006KT 07/02 A2998 RMK A01 T00670024  RH  074%=      5-min Rain = 0
KCO2 190859Z 13006KT 07/02 A2998 RMK A01 T00670024  RH  074%=      5-min Rain = 0
KCO2 190900Z 13005KT 07/02 A2998 RMK A01 T00660024  RH  074%=      5-min Rain = 0
KCO2 190901Z 14005KT 07/02 A2998 RMK A01 T00660024  RH  075%=      5-min Rain = 0
KCO2 190902Z 14005KT 07/02 A2998 RMK A01 T00660024  RH  075%=      5-min Rain = 0
KCO2 190903Z 13005KT 07/03 A2998 RMK A01 T00660025  RH  075%=      5-min Rain = 0
KCO2 190904Z 14005KT 07/03 A2998 RMK A01 T00660025  RH  075%=      5-min Rain = 0
KCO2 190905Z 14005KT 07/03 A2998 RMK A01 T00670025  RH  074%=      5-min Rain = 0
KCO2 190906Z 14005KT 07/02 A2998 RMK A01 T00650023  RH  074%=      5-min Rain = 0
KCO2 190907Z 13005KT 06/02 A2998 RMK A01 T00640023  RH  075%=      5-min Rain = 0
KCO2 190908Z 13005KT 06/02 A2998 RMK A01 T00620022  RH  075%=      5-min Rain = 0
KCO2 190909Z 13005KT 06/02 A2998 RMK A01 T00620023  RH  076%=      5-min Rain = 0
KCO2 190910Z 13006KT 06/02 A2998 RMK A01 T00620023  RH  076%=      5-min Rain = 0
KCO2 190911Z 13005KT 06/02 A2998 RMK A01 T00620023  RH  077%=      5-min Rain = 0
KCO2 190912Z 13005KT 06/02 A2998 RMK A01 T00620023  RH  076%=      5-min Rain = 0
KCO2 190913Z 13005KT 06/02 A2997 RMK A01 T00610023  RH  077%=      5-min Rain = 0
KCO2 190914Z 13006KT 06/02 A2997 RMK A01 T00620023  RH  076%=      5-min Rain = 0
KCO2 190915Z 13006KT 06/02 A2997 RMK A01 T00630024  RH  076%=      5-min Rain = 0
KCO2 190916Z 13006KT 06/02 A2997 RMK A01 T00630024  RH  076%=      5-min Rain = 0
KCO2 190917Z 13006KT 06/02 A2997 RMK A01 T00630023  RH  076%=      5-min Rain = 0
KCO2 190918Z 13006KT 06/02 A2997 RMK A01 T00630024  RH  076%=      5-min Rain = 0
KCO2 190919Z 13006KT 06/02 A2997 RMK A01 T00620023  RH  076%=      5-min Rain = 0
KCO2 190920Z 13006KT 06/02 A2997 RMK A01 T00620023  RH  077%=      5-min Rain = 0
KCO2 190921Z 13006KT 06/02 A2997 RMK A01 T00610024  RH  077%=      5-min Rain = 0
KCO2 190922Z 13006KT 06/02 A2997 RMK A01 T00610023  RH  077%=      5-min Rain = 0
KCO2 190923Z 13007KT 06/02 A2997 RMK A01 T00610023  RH  077%=      5-min Rain = 0
KCO2 190924Z 13007KT 06/02 A2997 RMK A01 T00600023  RH  077%=      5-min Rain = 0
KCO2 190925Z 13007KT 06/02 A2997 RMK A01 T00600023  RH  077%=      5-min Rain = 0
KCO2 190926Z 14007KT 06/02 A2997 RMK A01 T00600023  RH  077%=      5-min Rain = 0
KCO2 190927Z 14007KT 06/02 A2997 RMK A01 T00610024  RH  077%=      5-min Rain = 0
KCO2 190928Z 13007KT 06/02 A2997 RMK A01 T00620024  RH  077%=      5-min Rain = 0
KCO2 190929Z 13007KT 06/02 A2997 RMK A01 T00620024  RH  076%=      5-min Rain = 0
KCO2 190930Z 13007KT 06/02 A2997 RMK A01 T00620024  RH  076%=      5-min Rain = 0
KCO2 190931Z 13006KT 06/02 A2997 RMK A01 T00620023  RH  076%=      5-min Rain = 0
KCO2 190932Z 13006KT 06/02 A2997 RMK A01 T00620023  RH  076%=      5-min Rain = 0
KCO2 190933Z 13006KT 06/02 A2997 RMK A01 T00620023  RH  076%=      5-min Rain = 0
KCO2 190934Z 13006KT 06/02 A2997 RMK A01 T00620023  RH  076%=      5-min Rain = 0
KCO2 190935Z 13006KT 06/02 A2997 RMK A01 T00610023  RH  077%=      5-min Rain = 0
KCO2 190936Z 13006KT 06/02 A2997 RMK A01 T00600023  RH  077%=      5-min Rain = 0
KCO2 190937Z 13007KT 06/02 A2997 RMK A01 T00590022  RH  077%=      5-min Rain = 0
KCO2 190938Z 13006KT 06/02 A2997 RMK A01 T00590022  RH  078%=      5-min Rain = 0
KCO2 190939Z 13006KT 06/02 A2997 RMK A01 T00580023  RH  078%=      5-min Rain = 0
KCO2 190940Z 13006KT 06/02 A2997 RMK A01 T00580023  RH  078%=      5-min Rain = 0
KCO2 190941Z 13006KT 06/02 A2997 RMK A01 T00580023  RH  078%=      5-min Rain = 0
KCO2 190942Z 13006KT 06/02 A2997 RMK A01 T00580023  RH  078%=      5-min Rain = 0
KCO2 190943Z 13006KT 06/02 A2997 RMK A01 T00570022  RH  078%=      5-min Rain = 0
KCO2 190944Z 13006KT 06/02 A2997 RMK A01 T00580023  RH  078%=      5-min Rain = 0
KCO2 190945Z 13006KT 06/02 A2997 RMK A01 T00570022  RH  078%=      5-min Rain = 0
KCO2 190946Z 13006KT 06/02 A2997 RMK A01 T00570022  RH  078%=      5-min Rain = 0
KCO2 190947Z 14006KT 06/02 A2997 RMK A01 T00570022  RH  078%=      5-min Rain = 0
KCO2 190948Z 14006KT 06/02 A2997 RMK A01 T00570022  RH  078%=      5-min Rain = 0
KCO2 190949Z 14006KT 06/02 A2997 RMK A01 T00570022  RH  078%=      5-min Rain = 0
KCO2 190950Z 14006KT 06/02 A2997 RMK A01 T00570022  RH  078%=      5-min Rain = 0
KCO2 190951Z 14006KT 06/02 A2997 RMK A01 T00570021  RH  078%=      5-min Rain = 0
KCO2 190952Z 14006KT 06/02 A2997 RMK A01 T00570022  RH  078%=      5-min Rain = 0
KCO2 190953Z 14006KT 06/02 A2997 RMK A01 T00580022  RH  078%=      5-min Rain = 0
KCO2 190954Z 13006KT 06/02 A2997 RMK A01 T00580022  RH  078%=      5-min Rain = 0
KCO2 190955Z 13006KT 06/02 A2997 RMK A01 T00580022  RH  078%=      5-min Rain = 0
KCO2 190956Z 13006KT 06/02 A2997 RMK A01 T00580022  RH  077%=      5-min Rain = 0
KCO2 190957Z 13006KT 06/02 A2997 RMK A01 T00580022  RH  077%=      5-min Rain = 0
KCO2 190958Z 13005KT 06/02 A2997 RMK A01 T00580022  RH  077%=      5-min Rain = 0
KCO2 190959Z 13005KT 06/02 A2997 RMK A01 T00580022  RH  078%=      5-min Rain = 0
KCO2 191000Z 12005KT 06/02 A2997 RMK A01 T00580022  RH  078%=      5-min Rain = 0
KCO2 191001Z 12005KT 06/02 A2997 RMK A01 T00580022  RH  078%=      5-min Rain = 0
KCO2 191002Z 12005KT 06/02 A2997 RMK A01 T00590023  RH  077%=      5-min Rain = 0
KCO2 191003Z 12005KT 06/02 A2997 RMK A01 T00590022  RH  077%=      5-min Rain = 0
KCO2 191004Z 12004KT 06/02 A2997 RMK A01 T00580021  RH  077%=      5-min Rain = 0
KCO2 191005Z 12004KT 06/02 A2997 RMK A01 T00560020  RH  077%=      5-min Rain = 0
KCO2 191006Z 12004KT 06/02 A2997 RMK A01 T00550020  RH  078%=      5-min Rain = 0
KCO2 191007Z 12004KT 06/02 A2997 RMK A01 T00550020  RH  078%=      5-min Rain = 0
KCO2 191008Z 12005KT 05/02 A2997 RMK A01 T00540020  RH  079%=      5-min Rain = 0
KCO2 191009Z 13004KT 05/02 A2997 RMK A01 T00540021  RH  079%=      5-min Rain = 0
KCO2 191010Z 13005KT 05/02 A2997 RMK A01 T00540021  RH  079%=      5-min Rain = 0
KCO2 191011Z 13005KT 06/02 A2997 RMK A01 T00550022  RH  079%=      5-min Rain = 0
KCO2 191012Z 14005KT 06/02 A2997 RMK A01 T00550021  RH  079%=      5-min Rain = 0
KCO2 191013Z 14004KT 06/02 A2997 RMK A01 T00560022  RH  079%=      5-min Rain = 0
KCO2 191014Z 14005KT 06/02 A2997 RMK A01 T00560022  RH  079%=      5-min Rain = 0
KCO2 191015Z 14005KT 06/02 A2997 RMK A01 T00570023  RH  079%=      5-min Rain = 0
KCO2 191016Z 14005KT 06/02 A2997 RMK A01 T00570023  RH  078%=      5-min Rain = 0
KCO2 191017Z 14005KT 06/02 A2997 RMK A01 T00580022  RH  078%=      5-min Rain = 0
KCO2 191018Z 14005KT 06/02 A2997 RMK A01 T00580022  RH  078%=      5-min Rain = 0
KCO2 191019Z 14005KT 06/02 A2997 RMK A01 T00580022  RH  078%=      5-min Rain = 0
KCO2 191020Z 14005KT 06/02 A2997 RMK A01 T00580022  RH  077%=      5-min Rain = 0
KCO2 191021Z 14006KT 06/02 A2997 RMK A01 T00590022  RH  077%=      5-min Rain = 0
KCO2 191022Z 14005KT 06/02 A2997 RMK A01 T00590023  RH  077%=      5-min Rain = 0
KCO2 191023Z 14006KT 06/02 A2997 RMK A01 T00590022  RH  077%=      5-min Rain = 0
KCO2 191024Z 15006KT 06/02 A2997 RMK A01 T00590022  RH  077%=      5-min Rain = 0
KCO2 191025Z 14006KT 06/02 A2997 RMK A01 T00590022  RH  077%=      5-min Rain = 0
KCO2 191026Z 14006KT 06/02 A2997 RMK A01 T00580022  RH  078%=      5-min Rain = 0
KCO2 191027Z 14006KT 06/02 A2997 RMK A01 T00580022  RH  078%=      5-min Rain = 0
KCO2 191028Z 14006KT 06/02 A2997 RMK A01 T00580023  RH  078%=      5-min Rain = 0
KCO2 191029Z 14006KT 06/02 A2997 RMK A01 T00580023  RH  078%=      5-min Rain = 0
KCO2 191030Z 14006KT 06/02 A2997 RMK A01 T00580024  RH  078%=      5-min Rain = 0
KCO2 191031Z 14006KT 06/02 A2997 RMK A01 T00580023  RH  078%=      5-min Rain = 0
KCO2 191032Z 14006KT 06/02 A2997 RMK A01 T00580023  RH  078%=      5-min Rain = 0
KCO2 191033Z 14006KT 06/02 A2997 RMK A01 T00580024  RH  079%=      5-min Rain = 0
KCO2 191034Z 14006KT 06/02 A2997 RMK A01 T00580024  RH  079%=      5-min Rain = 0
KCO2 191035Z 14006KT 06/02 A2997 RMK A01 T00580024  RH  079%=      5-min Rain = 0
KCO2 191036Z 14006KT 06/02 A2997 RMK A01 T00580024  RH  079%=      5-min Rain = 0
KCO2 191037Z 14006KT 06/02 A2997 RMK A01 T00570023  RH  079%=      5-min Rain = 0
KCO2 191038Z 14006KT 06/02 A2997 RMK A01 T00570023  RH  079%=      5-min Rain = 0
KCO2 191039Z 14006KT 06/02 A2997 RMK A01 T00560024  RH  079%=      5-min Rain = 0
KCO2 191040Z 14006KT 06/02 A2997 RMK A01 T00560024  RH  079%=      5-min Rain = 0
KCO2 191041Z 14006KT 06/02 A2997 RMK A01 T00560024  RH  080%=      5-min Rain = 0
KCO2 191042Z 14006KT 06/02 A2997 RMK A01 T00560024  RH  080%=      5-min Rain = 0
KCO2 191043Z 14006KT 06/02 A2997 RMK A01 T00560023  RH  080%=      5-min Rain = 0
KCO2 191044Z 14006KT 06/02 A2997 RMK A01 T00560023  RH  080%=      5-min Rain = 0
KCO2 191045Z 14006KT 06/02 A2997 RMK A01 T00550023  RH  080%=      5-min Rain = 0
KCO2 191046Z 14006KT 06/02 A2997 RMK A01 T00550023  RH  080%=      5-min Rain = 0
KCO2 191047Z 14006KT 05/02 A2997 RMK A01 T00540023  RH  080%=      5-min Rain = 0
KCO2 191048Z 14006KT 05/02 A2997 RMK A01 T00540023  RH  080%=      5-min Rain = 0
KCO2 191049Z 13006KT 05/02 A2997 RMK A01 T00530023  RH  081%=      5-min Rain = 0
KCO2 191050Z 13006KT 05/02 A2997 RMK A01 T00530023  RH  081%=      5-min Rain = 0
KCO2 191051Z 13006KT 05/02 A2997 RMK A01 T00530023  RH  081%=      5-min Rain = 0
KCO2 191052Z 13006KT 05/02 A2997 RMK A01 T00530024  RH  081%=      5-min Rain = 0
KCO2 191053Z 13006KT 05/02 A2997 RMK A01 T00530024  RH  081%=      5-min Rain = 0
KCO2 191054Z 13006KT 05/02 A2997 RMK A01 T00540024  RH  081%=      5-min Rain = 0
KCO2 191055Z 13006KT 05/02 A2997 RMK A01 T00540024  RH  081%=      5-min Rain = 0
KCO2 191056Z 13006KT 05/02 A2997 RMK A01 T00540024  RH  081%=      5-min Rain = 0
KCO2 191057Z 13006KT 05/02 A2997 RMK A01 T00540024  RH  081%=      5-min Rain = 0
KCO2 191058Z 13006KT 05/02 A2997 RMK A01 T00540024  RH  081%=      5-min Rain = 0
KCO2 191059Z 13006KT 06/03 A2997 RMK A01 T00550025  RH  081%=      5-min Rain = 0
KCO2 191100Z 14006KT 06/03 A2997 RMK A01 T00550025  RH  081%=      5-min Rain = 0
KCO2 191101Z 13006KT 06/02 A2997 RMK A01 T00550024  RH  081%=      5-min Rain = 0
KCO2 191102Z 13006KT 05/02 A2997 RMK A01 T00540024  RH  081%=      5-min Rain = 0
KCO2 191103Z 13006KT 05/02 A2997 RMK A01 T00540024  RH  081%=      5-min Rain = 0
KCO2 191104Z 13006KT 05/02 A2997 RMK A01 T00540024  RH  081%=      5-min Rain = 0
KCO2 191105Z 13006KT 05/02 A2997 RMK A01 T00540024  RH  081%=      5-min Rain = 0
KCO2 191106Z 14006KT 05/02 A2997 RMK A01 T00530024  RH  081%=      5-min Rain = 0
KCO2 191107Z 14006KT 05/02 A2997 RMK A01 T00530024  RH  081%=      5-min Rain = 0
KCO2 191108Z 14006KT 05/02 A2997 RMK A01 T00520023  RH  082%=      5-min Rain = 0
KCO2 191109Z 14006KT 05/02 A2997 RMK A01 T00520024  RH  082%=      5-min Rain = 0
KCO2 191110Z 14006KT 05/02 A2997 RMK A01 T00520024  RH  082%=      5-min Rain = 0
KCO2 191111Z 14006KT 05/02 A2997 RMK A01 T00520024  RH  082%=      5-min Rain = 0
KCO2 191112Z 14006KT 05/02 A2997 RMK A01 T00530024  RH  082%=      5-min Rain = 0
KCO2 191113Z 14005KT 05/02 A2997 RMK A01 T00530024  RH  082%=      5-min Rain = 0
KCO2 191114Z 14005KT 05/02 A2997 RMK A01 T00530024  RH  082%=      5-min Rain = 0
KCO2 191115Z 14005KT 05/02 A2997 RMK A01 T00530024  RH  081%=      5-min Rain = 0
KCO2 191116Z 14005KT 05/02 A2997 RMK A01 T00530024  RH  081%=      5-min Rain = 0
KCO2 191117Z 14005KT 05/02 A2997 RMK A01 T00530024  RH  081%=      5-min Rain = 0
KCO2 191118Z 14005KT 05/02 A2997 RMK A01 T00530023  RH  081%=      5-min Rain = 0
KCO2 191119Z 14005KT 05/02 A2997 RMK A01 T00530024  RH  081%=      5-min Rain = 0
KCO2 191120Z 14005KT 05/02 A2997 RMK A01 T00540024  RH  081%=      5-min Rain = 0
KCO2 191121Z 14005KT 05/02 A2997 RMK A01 T00540024  RH  081%=      5-min Rain = 0
KCO2 191122Z 14005KT 06/03 A2997 RMK A01 T00550025  RH  081%=      5-min Rain = 0
KCO2 191123Z 14005KT 06/03 A2997 RMK A01 T00550025  RH  081%=      5-min Rain = 0
KCO2 191124Z 14005KT 06/02 A2997 RMK A01 T00550024  RH  081%=      5-min Rain = 0
KCO2 191125Z 14005KT 06/02 A2997 RMK A01 T00550024  RH  081%=      5-min Rain = 0
KCO2 191126Z 14005KT 06/02 A2997 RMK A01 T00550024  RH  080%=      5-min Rain = 0
KCO2 191127Z 14005KT 06/02 A2997 RMK A01 T00550023  RH  080%=      5-min Rain = 0
KCO2 191128Z 14005KT 05/02 A2997 RMK A01 T00530022  RH  080%=      5-min Rain = 0
KCO2 191129Z 14005KT 05/02 A2997 RMK A01 T00520021  RH  080%=      5-min Rain = 0
KCO2 191130Z 14004KT 05/02 A2997 RMK A01 T00520021  RH  081%=      5-min Rain = 0
KCO2 191131Z 14004KT 05/02 A2997 RMK A01 T00510020  RH  081%=      5-min Rain = 0
KCO2 191132Z 13004KT 05/02 A2997 RMK A01 T00500020  RH  081%=      5-min Rain = 0
KCO2 191133Z 13004KT 05/02 A2997 RMK A01 T00490019  RH  081%=      5-min Rain = 0
KCO2 191134Z 13004KT 05/02 A2997 RMK A01 T00490020  RH  081%=      5-min Rain = 0
KCO2 191135Z 13004KT 05/02 A2997 RMK A01 T00490020  RH  082%=      5-min Rain = 0
KCO2 191136Z 13004KT 05/02 A2997 RMK A01 T00490021  RH  082%=      5-min Rain = 0
KCO2 191137Z 13004KT 05/02 A2997 RMK A01 T00500022  RH  082%=      5-min Rain = 0
KCO2 191138Z 13004KT 05/02 A2997 RMK A01 T00510023  RH  082%=      5-min Rain = 0
KCO2 191139Z 14004KT 05/02 A2997 RMK A01 T00510022  RH  081%=      5-min Rain = 0
KCO2 191140Z 14004KT 05/02 A2997 RMK A01 T00520022  RH  081%=      5-min Rain = 0
KCO2 191141Z 14005KT 05/02 A2996 RMK A01 T00520022  RH  081%=      5-min Rain = 0
KCO2 191142Z 14005KT 05/02 A2996 RMK A01 T00520023  RH  081%=      5-min Rain = 0
KCO2 191143Z 14005KT 05/02 A2996 RMK A01 T00520023  RH  081%=      5-min Rain = 0
KCO2 191144Z 14005KT 05/02 A2996 RMK A01 T00520023  RH  081%=      5-min Rain = 0
KCO2 191145Z 14005KT 05/02 A2996 RMK A01 T00530023  RH  081%=      5-min Rain = 0
KCO2 191146Z 14005KT 05/02 A2996 RMK A01 T00520023  RH  081%=      5-min Rain = 0
KCO2 191147Z 14005KT 05/02 A2997 RMK A01 T00520023  RH  081%=      5-min Rain = 0
KCO2 191148Z 14005KT 05/02 A2997 RMK A01 T00530023  RH  081%=      5-min Rain = 0
KCO2 191149Z 14006KT 05/02 A2997 RMK A01 T00520023  RH  081%=      5-min Rain = 0
KCO2 191150Z 14006KT 05/02 A2997 RMK A01 T00520023  RH  081%=      5-min Rain = 0
KCO2 191151Z 13005KT 05/02 A2997 RMK A01 T00530023  RH  081%=      5-min Rain = 0
KCO2 191152Z 13005KT 05/02 A2997 RMK A01 T00520023  RH  081%=      5-min Rain = 0
KCO2 191153Z 12005KT 05/02 A2997 RMK A01 T00520024  RH  082%=      5-min Rain = 0
KCO2 191154Z 13005KT 05/02 A2997 RMK A01 T00520024  RH  082%=      5-min Rain = 0
KCO2 191155Z 12005KT 05/02 A2997 RMK A01 T00520024  RH  082%=      5-min Rain = 0
KCO2 191156Z 12005KT 05/02 A2997 RMK A01 T00520024  RH  082%=      5-min Rain = 0
KCO2 191157Z 12005KT 05/02 A2997 RMK A01 T00520024  RH  082%=      5-min Rain = 0
KCO2 191158Z 12005KT 05/02 A2997 RMK A01 T00520024  RH  082%=      5-min Rain = 0
KCO2 191159Z 12004KT 05/02 A2997 RMK A01 T00520024  RH  082%=      5-min Rain = 0
KCO2 191200Z 13004KT 05/02 A2997 RMK A01 T00520024  RH  082%=      5-min Rain = 0
KCO2 191201Z 12004KT 05/02 A2997 RMK A01 T00520024  RH  082%=      5-min Rain = 0
KCO2 191202Z 12004KT 05/02 A2997 RMK A01 T00520024  RH  082%=      5-min Rain = 0
KCO2 191203Z 12004KT 05/02 A2997 RMK A01 T00520024  RH  082%=      5-min Rain = 0
KCO2 191204Z 12004KT 05/02 A2997 RMK A01 T00520024  RH  082%=      5-min Rain = 0
KCO2 191205Z 12004KT 05/02 A2997 RMK A01 T00520024  RH  082%=      5-min Rain = 0
KCO2 191206Z 12004KT 05/02 A2997 RMK A01 T00520023  RH  082%=      5-min Rain = 0
KCO2 191207Z 12004KT 05/02 A2997 RMK A01 T00520023  RH  082%=      5-min Rain = 0
KCO2 191208Z 13004KT 05/02 A2997 RMK A01 T00520023  RH  082%=      5-min Rain = 0
KCO2 191209Z 13004KT 05/02 A2997 RMK A01 T00520023  RH  082%=      5-min Rain = 0
KCO2 191210Z 13004KT 05/02 A2997 RMK A01 T00510022  RH  082%=      5-min Rain = 0
KCO2 191211Z 13004KT 05/02 A2997 RMK A01 T00510022  RH  082%=      5-min Rain = 0
KCO2 191212Z 12004KT 05/02 A2997 RMK A01 T00510022  RH  082%=      5-min Rain = 0
KCO2 191213Z 13004KT 05/02 A2997 RMK A01 T00510022  RH  082%=      5-min Rain = 0
KCO2 191214Z 12004KT 05/02 A2997 RMK A01 T00500022  RH  082%=      5-min Rain = 0
KCO2 191215Z 13004KT 05/02 A2997 RMK A01 T00500022  RH  082%=      5-min Rain = 0
KCO2 191216Z 13004KT 05/02 A2997 RMK A01 T00500022  RH  082%=      5-min Rain = 0
KCO2 191217Z 14004KT 05/02 A2997 RMK A01 T00500022  RH  082%=      5-min Rain = 0
KCO2 191218Z 14004KT 05/02 A2997 RMK A01 T00500022  RH  082%=      5-min Rain = 0
KCO2 191219Z 14004KT 05/02 A2997 RMK A01 T00500022  RH  082%=      5-min Rain = 0
KCO2 191220Z 14004KT 05/02 A2997 RMK A01 T00500022  RH  082%=      5-min Rain = 0
KCO2 191221Z 15004KT 05/02 A2997 RMK A01 T00500022  RH  082%=      5-min Rain = 0
KCO2 191222Z 15004KT 05/02 A2997 RMK A01 T00510022  RH  082%=      5-min Rain = 0
KCO2 191223Z 15004KT 05/02 A2997 RMK A01 T00510022  RH  082%=      5-min Rain = 0
KCO2 191224Z 15004KT 05/02 A2997 RMK A01 T00510022  RH  082%=      5-min Rain = 0
KCO2 191225Z 15004KT 05/02 A2997 RMK A01 T00520023  RH  081%=      5-min Rain = 0
KCO2 191226Z 15004KT 05/02 A2997 RMK A01 T00520022  RH  081%=      5-min Rain = 0
KCO2 191227Z 15004KT 05/02 A2997 RMK A01 T00520022  RH  081%=      5-min Rain = 0
KCO2 191228Z 15004KT 05/02 A2997 RMK A01 T00530022  RH  081%=      5-min Rain = 0
KCO2 191229Z 15004KT 05/02 A2997 RMK A01 T00530023  RH  081%=      5-min Rain = 0
KCO2 191230Z 14004KT 05/02 A2997 RMK A01 T00530023  RH  081%=      5-min Rain = 0
KCO2 191231Z 15004KT 05/02 A2997 RMK A01 T00540023  RH  080%=      5-min Rain = 0
KCO2 191232Z 14004KT 05/02 A2997 RMK A01 T00540022  RH  080%=      5-min Rain = 0
KCO2 191233Z 15004KT 05/02 A2997 RMK A01 T00540022  RH  080%=      5-min Rain = 0
KCO2 191234Z 15005KT 05/02 A2997 RMK A01 T00540023  RH  080%=      5-min Rain = 0
KCO2 191235Z 14005KT 05/02 A2997 RMK A01 T00530022  RH  080%=      5-min Rain = 0
KCO2 191236Z 14005KT 05/02 A2997 RMK A01 T00530022  RH  080%=      5-min Rain = 0
KCO2 191237Z 14005KT 05/02 A2997 RMK A01 T00520022  RH  081%=      5-min Rain = 0
KCO2 191238Z 14004KT 05/02 A2998 RMK A01 T00520022  RH  081%=      5-min Rain = 0
KCO2 191239Z 14005KT 05/02 A2998 RMK A01 T00510022  RH  081%=      5-min Rain = 0
KCO2 191240Z 14005KT 05/02 A2998 RMK A01 T00510022  RH  082%=      5-min Rain = 0
KCO2 191241Z 14005KT 05/02 A2998 RMK A01 T00510022  RH  082%=      5-min Rain = 0
KCO2 191242Z 13005KT 05/02 A2998 RMK A01 T00510022  RH  082%=      5-min Rain = 0
KCO2 191243Z 14005KT 05/02 A2998 RMK A01 T00500022  RH  082%=      5-min Rain = 0
KCO2 191244Z 14005KT 05/02 A2998 RMK A01 T00500022  RH  082%=      5-min Rain = 0
KCO2 191245Z 13005KT 05/02 A2998 RMK A01 T00500022  RH  083%=      5-min Rain = 0
KCO2 191246Z 13005KT 05/02 A2998 RMK A01 T00500023  RH  083%=      5-min Rain = 0
KCO2 191247Z 14005KT 05/02 A2998 RMK A01 T00500023  RH  083%=      5-min Rain = 0
KCO2 191248Z 14005KT 05/02 A2998 RMK A01 T00490023  RH  083%=      5-min Rain = 0
KCO2 191249Z 14004KT 05/02 A2998 RMK A01 T00490022  RH  083%=      5-min Rain = 0
KCO2 191250Z 14004KT 05/02 A2998 RMK A01 T00490023  RH  083%=      5-min Rain = 0
KCO2 191251Z 15004KT 05/02 A2998 RMK A01 T00490023  RH  083%=      5-min Rain = 0
KCO2 191252Z 15004KT 05/02 A2998 RMK A01 T00490023  RH  083%=      5-min Rain = 0
KCO2 191253Z 15004KT 05/02 A2998 RMK A01 T00500023  RH  083%=      5-min Rain = 0
KCO2 191254Z 15004KT 05/02 A2998 RMK A01 T00500023  RH  083%=      5-min Rain = 0
KCO2 191255Z 15004KT 05/02 A2998 RMK A01 T00500023  RH  083%=      5-min Rain = 0
KCO2 191256Z 15004KT 05/02 A2998 RMK A01 T00510024  RH  082%=      5-min Rain = 0
KCO2 191257Z 16004KT 05/02 A2998 RMK A01 T00510023  RH  082%=      5-min Rain = 0
KCO2 191258Z 15004KT 05/02 A2998 RMK A01 T00510023  RH  082%=      5-min Rain = 0
KCO2 191259Z 15003KT 05/02 A2998 RMK A01 T00520023  RH  082%=      5-min Rain = 0
KCO2 191300Z 15003KT 05/02 A2998 RMK A01 T00520023  RH  082%=      5-min Rain = 0
KCO2 191301Z 15003KT 05/02 A2998 RMK A01 T00520023  RH  081%=      5-min Rain = 0
KCO2 191302Z 14004KT 05/02 A2999 RMK A01 T00530023  RH  081%=      5-min Rain = 0
KCO2 191303Z 14004KT 05/02 A2999 RMK A01 T00530024  RH  081%=      5-min Rain = 0
KCO2 191304Z 14004KT 05/02 A2999 RMK A01 T00530023  RH  081%=      5-min Rain = 0
KCO2 191305Z 14004KT 05/02 A2999 RMK A01 T00530023  RH  081%=      5-min Rain = 0
KCO2 191306Z 15004KT 05/02 A2999 RMK A01 T00530023  RH  081%=      5-min Rain = 0
KCO2 191307Z 15003KT 05/02 A2999 RMK A01 T00530023  RH  081%=      5-min Rain = 0
KCO2 191308Z 15003KT 05/02 A2999 RMK A01 T00530022  RH  081%=      5-min Rain = 0
KCO2 191309Z 15003KT 05/02 A2999 RMK A01 T00530022  RH  080%=      5-min Rain = 0
KCO2 191310Z 14003KT 05/02 A2999 RMK A01 T00520021  RH  080%=      5-min Rain = 0
KCO2 191311Z 15003KT 05/02 A2999 RMK A01 T00510021  RH  081%=      5-min Rain = 0
KCO2 191312Z 15003KT 05/02 A2999 RMK A01 T00500020  RH  081%=      5-min Rain = 0
KCO2 191313Z 15003KT 05/02 A2999 RMK A01 T00490020  RH  081%=      5-min Rain = 0
KCO2 191314Z 15003KT 05/02 A2999 RMK A01 T00480019  RH  082%=      5-min Rain = 0
KCO2 191315Z 15003KT 05/02 A2999 RMK A01 T00470019  RH  082%=      5-min Rain = 0
KCO2 191316Z 15003KT 05/02 A2999 RMK A01 T00470019  RH  082%=      5-min Rain = 0
KCO2 191317Z 15003KT 05/02 A2999 RMK A01 T00460019  RH  083%=      5-min Rain = 0
KCO2 191318Z 14003KT 05/02 A2999 RMK A01 T00470020  RH  083%=      5-min Rain = 0
KCO2 191319Z 15003KT 05/02 A2999 RMK A01 T00460020  RH  083%=      5-min Rain = 0
KCO2 191320Z 15003KT 05/02 A2999 RMK A01 T00460020  RH  083%=      5-min Rain = 0
KCO2 191321Z 15003KT 05/02 A2999 RMK A01 T00470020  RH  083%=      5-min Rain = 0
KCO2 191322Z 14003KT 05/02 A2999 RMK A01 T00480021  RH  083%=      5-min Rain = 0
KCO2 191323Z 15003KT 05/02 A2999 RMK A01 T00490021  RH  083%=      5-min Rain = 0
KCO2 191324Z 15003KT 05/02 A2999 RMK A01 T00490021  RH  082%=      5-min Rain = 0
KCO2 191325Z 15003KT 05/02 A2999 RMK A01 T00500022  RH  082%=      5-min Rain = 0
KCO2 191326Z 15003KT 05/02 A2999 RMK A01 T00500022  RH  082%=      5-min Rain = 0
KCO2 191327Z 15003KT 05/02 A2999 RMK A01 T00510022  RH  081%=      5-min Rain = 0
KCO2 191328Z 15003KT 05/02 A2999 RMK A01 T00510022  RH  081%=      5-min Rain = 0
KCO2 191329Z 15003KT 05/02 A2999 RMK A01 T00520022  RH  081%=      5-min Rain = 0
KCO2 191330Z 15003KT 05/02 A2999 RMK A01 T00520021  RH  081%=      5-min Rain = 0
KCO2 191331Z 15003KT 05/02 A2999 RMK A01 T00530022  RH  080%=      5-min Rain = 0
KCO2 191332Z 14003KT 05/02 A2999 RMK A01 T00530022  RH  080%=      5-min Rain = 0
KCO2 191333Z 14003KT 05/02 A2999 RMK A01 T00540022  RH  080%=      5-min Rain = 0
KCO2 191334Z 13003KT 05/02 A2999 RMK A01 T00540022  RH  080%=      5-min Rain = 0
KCO2 191335Z 12003KT 05/02 A2999 RMK A01 T00540022  RH  080%=      5-min Rain = 0
KCO2 191336Z 12004KT 05/02 A2999 RMK A01 T00540022  RH  080%=      5-min Rain = 0
KCO2 191337Z 12004KT 05/02 A2999 RMK A01 T00530022  RH  080%=      5-min Rain = 0
KCO2 191338Z 12004KT 05/02 A2999 RMK A01 T00520022  RH  081%=      5-min Rain = 0
KCO2 191339Z 12004KT 05/02 A2999 RMK A01 T00520022  RH  081%=      5-min Rain = 0
KCO2 191340Z 12004KT 05/02 A2999 RMK A01 T00510021  RH  081%=      5-min Rain = 0
KCO2 191341Z 12003KT 05/02 A2999 RMK A01 T00500021  RH  082%=      5-min Rain = 0
KCO2 191342Z 12003KT 05/02 A2999 RMK A01 T00500022  RH  082%=      5-min Rain = 0
KCO2 191343Z 12003KT 05/02 A2999 RMK A01 T00500022  RH  082%=      5-min Rain = 0
KCO2 191344Z 12003KT 05/02 A2999 RMK A01 T00500022  RH  082%=      5-min Rain = 0
KCO2 191345Z 11003KT 05/02 A2999 RMK A01 T00500022  RH  082%=      5-min Rain = 0
KCO2 191346Z 11003KT 05/02 A2999 RMK A01 T00500022  RH  082%=      5-min Rain = 0
KCO2 191347Z 11003KT 05/02 A2999 RMK A01 T00510022  RH  082%=      5-min Rain = 0
KCO2 191348Z 11003KT 05/02 A2999 RMK A01 T00520022  RH  081%=      5-min Rain = 0
KCO2 191349Z 11003KT 05/02 A2999 RMK A01 T00530022  RH  081%=      5-min Rain = 0
KCO2 191350Z 11003KT 05/02 A2999 RMK A01 T00540023  RH  080%=      5-min Rain = 0
KCO2 191351Z 11003KT 06/02 A2999 RMK A01 T00560024  RH  080%=      5-min Rain = 0
KCO2 191352Z 11003KT 06/03 A2999 RMK A01 T00580025  RH  080%=      5-min Rain = 0
KCO2 191353Z 11002KT 06/03 A2999 RMK A01 T00600026  RH  079%=      5-min Rain = 0
KCO2 191354Z 11002KT 06/03 A2999 RMK A01 T00610026  RH  078%=      5-min Rain = 0
KCO2 191355Z 11002KT 06/03 A2999 RMK A01 T00630027  RH  078%=      5-min Rain = 0
KCO2 191356Z 11002KT 07/03 A2999 RMK A01 T00650028  RH  077%=      5-min Rain = 0
KCO2 191357Z 11003KT 07/03 A2999 RMK A01 T00660028  RH  077%=      5-min Rain = 0
KCO2 191358Z 11003KT 07/03 A2999 RMK A01 T00680029  RH  076%=      5-min Rain = 0
KCO2 191359Z 11003KT 07/03 A2999 RMK A01 T00690029  RH  076%=      5-min Rain = 0
KCO2 191400Z 11003KT 07/03 A2999 RMK A01 T00700029  RH  075%=      5-min Rain = 0
KCO2 191401Z 11003KT 07/03 A2999 RMK A01 T00710029  RH  075%=      5-min Rain = 0
KCO2 191402Z 11003KT 07/03 A2999 RMK A01 T00720029  RH  074%=      5-min Rain = 0
KCO2 191403Z 11003KT 07/03 A2999 RMK A01 T00730031  RH  074%=      5-min Rain = 0
KCO2 191404Z 11002KT 08/03 A30 RMK A01 T00750032  RH  074%=      5-min Rain = 0
KCO2 191405Z 12002KT 08/03 A30 RMK A01 T00770032  RH  074%=      5-min Rain = 0
KCO2 191406Z 12002KT 08/03 A30 RMK A01 T00780032  RH  073%=      5-min Rain = 0
KCO2 191407Z 12002KT 08/03 A30 RMK A01 T00790032  RH  072%=      5-min Rain = 0
KCO2 191408Z 13002KT 08/03 A30 RMK A01 T00810033  RH  072%=      5-min Rain = 0
KCO2 191409Z 13002KT 08/03 A30 RMK A01 T00830033  RH  071%=      5-min Rain = 0
KCO2 191410Z 13002KT 08/03 A30 RMK A01 T00840032  RH  070%=      5-min Rain = 0
KCO2 191411Z 14001KT 09/03 A30 RMK A01 T00860032  RH  069%=      5-min Rain = 0
KCO2 191412Z 15001KT 09/03 A30 RMK A01 T00870033  RH  069%=      5-min Rain = 0
KCO2 191413Z 14001KT 09/03 A30 RMK A01 T00890034  RH  068%=      5-min Rain = 0
KCO2 191414Z 14001KT 09/03 A30 RMK A01 T00910034  RH  067%=      5-min Rain = 0
KCO2 191415Z 13001KT 09/03 A30 RMK A01 T00920033  RH  067%=      5-min Rain = 0
KCO2 191416Z 13001KT 09/03 A30 RMK A01 T00940033  RH  066%=      5-min Rain = 0
KCO2 191417Z 15001KT 10/03 A30 RMK A01 T00950033  RH  065%=      5-min Rain = 0
KCO2 191418Z 15000KT 10/04 A30 RMK A01 T00970035  RH  065%=      5-min Rain = 0
KCO2 191419Z 17000KT 10/04 A30 RMK A01 T01000035  RH  064%=      5-min Rain = 0
KCO2 191420Z 15001KT 10/03 A30 RMK A01 T01010033  RH  062%=      5-min Rain = 0
KCO2 191421Z 14000KT 10/03 A30 RMK A01 T01020032  RH  062%=      5-min Rain = 0
KCO2 191422Z 15001KT 10/03 A30 RMK A01 T01020032  RH  062%=      5-min Rain = 0
KCO2 191423Z 15001KT 10/03 A30 RMK A01 T01030032  RH  061%=      5-min Rain = 0
KCO2 191424Z 15001KT 10/03 A30 RMK A01 T01040033  RH  062%=      5-min Rain = 0
KCO2 191425Z 16001KT 11/03 A30 RMK A01 T01050033  RH  061%=      5-min Rain = 0
KCO2 191426Z 16002KT 11/04 A30 RMK A01 T01060035  RH  061%=      5-min Rain = 0
KCO2 191427Z 17002KT 11/03 A30 RMK A01 T01080033  RH  060%=      5-min Rain = 0
KCO2 191428Z 17002KT 11/03 A30 RMK A01 T01080033  RH  060%=      5-min Rain = 0
KCO2 191429Z 16002KT 11/03 A30 RMK A01 T01080033  RH  060%=      5-min Rain = 0
KCO2 191430Z 15002KT 11/04 A30 RMK A01 T01090035  RH  060%=      5-min Rain = 0
KCO2 191431Z 15002KT 11/04 A30 RMK A01 T01090036  RH  060%=      5-min Rain = 0
KCO2 191432Z 15002KT 11/04 A30 RMK A01 T01100036  RH  060%=      5-min Rain = 0
KCO2 191433Z 15001KT 11/04 A30 RMK A01 T01110036  RH  060%=      5-min Rain = 0
KCO2 191434Z 15001KT 11/04 A30 RMK A01 T01120036  RH  059%=      5-min Rain = 0
KCO2 191435Z 16001KT 11/04 A30 RMK A01 T01130037  RH  059%=      5-min Rain = 0
KCO2 191436Z 14002KT 12/04 A30 RMK A01 T01150039  RH  060%=      5-min Rain = 0
KCO2 191437Z 17002KT 12/04 A30 RMK A01 T01160040  RH  060%=      5-min Rain = 0
KCO2 191438Z 16002KT 12/04 A30 RMK A01 T01160040  RH  060%=      5-min Rain = 0
KCO2 191439Z 17002KT 12/04 A30 RMK A01 T01170040  RH  059%=      5-min Rain = 0
KCO2 191440Z 16002KT 12/04 A30 RMK A01 T01170041  RH  060%=      5-min Rain = 0
KCO2 191441Z 16002KT 12/04 A30 RMK A01 T01170042  RH  060%=      5-min Rain = 0
KCO2 191442Z 16003KT 12/04 A30 RMK A01 T01180041  RH  059%=      5-min Rain = 0
KCO2 191443Z 16002KT 12/04 A30 RMK A01 T01180040  RH  059%=      5-min Rain = 0
KCO2 191444Z 16002KT 12/04 A30 RMK A01 T01180042  RH  059%=      5-min Rain = 0
KCO2 191445Z 19002KT 12/04 A30 RMK A01 T01180042  RH  059%=      5-min Rain = 0
KCO2 191446Z 18002KT 12/04 A30 RMK A01 T01190041  RH  059%=      5-min Rain = 0
KCO2 191447Z 16002KT 12/04 A30 RMK A01 T01190042  RH  059%=      5-min Rain = 0
KCO2 191448Z 16002KT 12/04 A30 RMK A01 T01200042  RH  059%=      5-min Rain = 0
KCO2 191449Z 19002KT 12/04 A30 RMK A01 T01200042  RH  059%=      5-min Rain = 0
KCO2 191450Z 19003KT 12/04 A30 RMK A01 T01200042  RH  059%=      5-min Rain = 0
KCO2 191451Z 19003KT 12/04 A30 RMK A01 T01200041  RH  058%=      5-min Rain = 0
KCO2 191452Z 20002KT 12/04 A30 RMK A01 T01200041  RH  059%=      5-min Rain = 0
KCO2 191453Z 19002KT 12/04 A30 RMK A01 T01200043  RH  059%=      5-min Rain = 0
KCO2 191454Z 19002KT 12/04 A30 RMK A01 T01210043  RH  059%=      5-min Rain = 0
KCO2 191455Z 20002KT 12/04 A30 RMK A01 T01220044  RH  059%=      5-min Rain = 0
KCO2 191456Z 20002KT 12/05 A30 RMK A01 T01230045  RH  059%=      5-min Rain = 0
KCO2 191457Z 20003KT 12/04 A30 RMK A01 T01240044  RH  058%=      5-min Rain = 0
KCO2 191458Z 20003KT 12/04 A30 RMK A01 T01240043  RH  058%=      5-min Rain = 0
KCO2 191459Z 19004KT 12/04 A30 RMK A01 T01230043  RH  058%=      5-min Rain = 0
KCO2 191500Z 19004KT 12/04 A30 RMK A01 T01220043  RH  058%=      5-min Rain = 0
KCO2 191501Z 19004KT 12/04 A30 RMK A01 T01220043  RH  058%=      5-min Rain = 0
KCO2 191502Z 19004KT 12/04 A30 RMK A01 T01210043  RH  059%=      5-min Rain = 0
KCO2 191503Z 18003KT 12/04 A30 RMK A01 T01210043  RH  059%=      5-min Rain = 0
KCO2 191504Z 19003KT 12/05 A30 RMK A01 T01220045  RH  059%=      5-min Rain = 0
KCO2 191505Z 18004KT 12/05 A30 RMK A01 T01240045  RH  058%=      5-min Rain = 0
KCO2 191506Z 19003KT 12/04 A30 RMK A01 T01240044  RH  058%=      5-min Rain = 0
KCO2 191507Z 18003KT 13/05 A30 RMK A01 T01250045  RH  058%=      5-min Rain = 0
KCO2 191508Z 17003KT 13/05 A30 RMK A01 T01260045  RH  058%=      5-min Rain = 0
KCO2 191509Z 17003KT 13/05 A30 RMK A01 T01270046  RH  058%=      5-min Rain = 0
KCO2 191510Z 17004KT 13/05 A30 RMK A01 T01280047  RH  058%=      5-min Rain = 0
KCO2 191511Z 16005KT 13/05 A30 RMK A01 T01300047  RH  057%=      5-min Rain = 0
KCO2 191512Z 17005KT 13/05 A30 RMK A01 T01310047  RH  057%=      5-min Rain = 0
KCO2 191513Z 17005KT 13/05 A30 RMK A01 T01320047  RH  056%=      5-min Rain = 0
KCO2 191514Z 17005KT 13/05 A30 RMK A01 T01320047  RH  056%=      5-min Rain = 0
KCO2 191515Z 16006KT 13/05 A30 RMK A01 T01320047  RH  056%=      5-min Rain = 0
KCO2 191516Z 17005KT 13/05 A30 RMK A01 T01320047  RH  056%=      5-min Rain = 0
KCO2 191517Z 17005KT 13/05 A30 RMK A01 T01340049  RH  056%=      5-min Rain = 0
KCO2 191518Z 17005KT 14/05 A30 RMK A01 T01360048  RH  055%=      5-min Rain = 0
KCO2 191519Z 18005KT 14/05 A30 RMK A01 T01360048  RH  055%=      5-min Rain = 0
KCO2 191520Z 18005KT 14/05 A30 RMK A01 T01370048  RH  055%=      5-min Rain = 0
KCO2 191521Z 18005KT 14/05 A30 RMK A01 T01370048  RH  055%=      5-min Rain = 0
KCO2 191522Z 18005KT 14/05 A30 RMK A01 T01360048  RH  055%=      5-min Rain = 0
KCO2 191523Z 18005KT 14/05 A30 RMK A01 T01370049  RH  055%=      5-min Rain = 0
KCO2 191524Z 17005KT 14/05 A30 RMK A01 T01380050  RH  055%=      5-min Rain = 0
KCO2 191525Z 19005KT 14/05 A30 RMK A01 T01390049  RH  055%=      5-min Rain = 0
KCO2 191526Z 19006KT 14/05 A30 RMK A01 T01390050  RH  055%=      5-min Rain = 0
KCO2 191527Z 18005KT 14/05 A30 RMK A01 T01400051  RH  055%=      5-min Rain = 0
KCO2 191528Z 19004KT 14/05 A30 RMK A01 T01420052  RH  055%=      5-min Rain = 0
KCO2 191529Z 18006KT 14/05 A30 RMK A01 T01440052  RH  054%=      5-min Rain = 0
KCO2 191530Z 20005KT 14/05 A30 RMK A01 T01440051  RH  054%=      5-min Rain = 0
KCO2 191531Z 18004KT 14/05 A30 RMK A01 T01420052  RH  054%=      5-min Rain = 0
KCO2 191532Z 18005KT 14/05 A30 RMK A01 T01430053  RH  055%=      5-min Rain = 0
KCO2 191533Z 20004KT 15/05 A30 RMK A01 T01450053  RH  054%=      5-min Rain = 0
KCO2 191534Z 19005KT 14/05 A30 RMK A01 T01440053  RH  054%=      5-min Rain = 0
KCO2 191535Z 19004KT 14/05 A30 RMK A01 T01440054  RH  054%=      5-min Rain = 0
KCO2 191536Z 20005KT 15/05 A30 RMK A01 T01450054  RH  054%=      5-min Rain = 0
KCO2 191537Z 20006KT 15/05 A30 RMK A01 T01460054  RH  054%=      5-min Rain = 0
KCO2 191538Z 18006KT 15/06 A30 RMK A01 T01480056  RH  054%=      5-min Rain = 0
KCO2 191539Z 18006KT 15/06 A30 RMK A01 T01500055  RH  053%=      5-min Rain = 0
KCO2 191540Z 19007KT 15/06 A30 RMK A01 T01500055  RH  053%=      5-min Rain = 0
KCO2 191541Z 19008KT 15/06 A30 RMK A01 T01510055  RH  053%=      5-min Rain = 0
KCO2 191542Z 18007KT 15/06 A30 RMK A01 T01520056  RH  053%=      5-min Rain = 0
KCO2 191543Z 19005KT 15/06 A30 RMK A01 T01530057  RH  053%=      5-min Rain = 0
KCO2 191544Z 20007KT 16/06 A30 RMK A01 T01560058  RH  052%=      5-min Rain = 0
KCO2 191545Z 20006KT 16/06 A30 RMK A01 T01560056  RH  051%=      5-min Rain = 0
KCO2 191546Z 19007KT 16/06 A30 RMK A01 T01550057  RH  052%=      5-min Rain = 0
KCO2 191547Z 19008KT 15/06 A30 RMK A01 T01540057  RH  052%=      5-min Rain = 0
KCO2 191548Z 20007KT 15/06 A30 RMK A01 T01540056  RH  052%=      5-min Rain = 0
KCO2 191549Z 20005KT 15/06 A30 RMK A01 T01530057  RH  052%=      5-min Rain = 0
KCO2 191550Z 19008KT 16/06 A30 RMK A01 T01550057  RH  052%=      5-min Rain = 0
KCO2 191551Z 19009KT 16/06 A30 RMK A01 T01560057  RH  052%=      5-min Rain = 0
KCO2 191552Z 19008KT 16/06 A30 RMK A01 T01560057  RH  052%=      5-min Rain = 0
KCO2 191553Z 19008KT 16/06 A30 RMK A01 T01570057  RH  051%=      5-min Rain = 0
KCO2 191554Z 19007KT 16/06 A30 RMK A01 T01580058  RH  051%=      5-min Rain = 0
KCO2 191555Z 20007KT 16/06 A30 RMK A01 T01580058  RH  051%=      5-min Rain = 0
KCO2 191556Z 20007KT 16/06 A30 RMK A01 T01600059  RH  051%=      5-min Rain = 0
KCO2 191557Z 20006KT 16/06 A30 RMK A01 T01620060  RH  051%=      5-min Rain = 0
KCO2 191558Z 20005KT 17/06 A30 RMK A01 T01650061  RH  050%=      5-min Rain = 0
KCO2 191559Z 19008KT 17/06 A30 RMK A01 T01670061  RH  049%=      5-min Rain = 0
KCO2 191600Z 18008KT 17/06 A30 RMK A01 T01670060  RH  049%=      5-min Rain = 0
KCO2 191601Z 20007KT 17/06 A30 RMK A01 T01670060  RH  049%=      5-min Rain = 0
KCO2 191602Z 19007KT 17/06 A30 RMK A01 T01670060  RH  049%=      5-min Rain = 0
KCO2 191603Z 18009KT 17/06 A30 RMK A01 T01670060  RH  049%=      5-min Rain = 0
KCO2 191604Z 20007KT 17/06 A30 RMK A01 T01670060  RH  049%=      5-min Rain = 0
KCO2 191605Z 20008KT 17/06 A30 RMK A01 T01670060  RH  049%=      5-min Rain = 0
KCO2 191606Z 20008KT 17/06 A30 RMK A01 T01670060  RH  049%=      5-min Rain = 0
KCO2 191607Z 20008KT 17/06 A30 RMK A01 T01670060  RH  049%=      5-min Rain = 0
KCO2 191608Z 19006KT 17/06 A30 RMK A01 T01670061  RH  049%=      5-min Rain = 0
KCO2 191609Z 20008KT 17/06 A30 RMK A01 T01690061  RH  049%=      5-min Rain = 0
KCO2 191610Z 20007KT 17/06 A30 RMK A01 T01690061  RH  049%=      5-min Rain = 0
KCO2 191611Z 18008KT 17/06 A30 RMK A01 T01700061  RH  049%=      5-min Rain = 0
KCO2 191612Z 18007KT 17/06 A30 RMK A01 T01700061  RH  049%=      5-min Rain = 0
KCO2 191613Z 18007KT 17/06 A30 RMK A01 T01720063  RH  049%=      5-min Rain = 0
KCO2 191614Z 18008KT 17/06 A30 RMK A01 T01740063  RH  048%=      5-min Rain = 0
KCO2 191615Z 18009KT 17/06 A30 RMK A01 T01740061  RH  047%=      5-min Rain = 0
KCO2 191616Z 18009KT 17/06 A30 RMK A01 T01710060  RH  048%=      5-min Rain = 0
KCO2 191617Z 19008KT 17/06 A30 RMK A01 T01700061  RH  049%=      5-min Rain = 0
KCO2 191618Z 19008KT 17/06 A30 RMK A01 T01700062  RH  049%=      5-min Rain = 0
KCO2 191619Z 19008KT 17/06 A30 RMK A01 T01700062  RH  049%=      5-min Rain = 0
KCO2 191620Z 20008KT 17/06 A30 RMK A01 T01710061  RH  048%=      5-min Rain = 0
KCO2 191621Z 20008KT 17/06 A30 RMK A01 T01710062  RH  049%=      5-min Rain = 0
KCO2 191622Z 20008KT 17/06 A30 RMK A01 T01720062  RH  049%=      5-min Rain = 0
KCO2 191623Z 20007KT 17/06 A30 RMK A01 T01740064  RH  048%=      5-min Rain = 0
KCO2 191624Z 20007KT 18/06 A30 RMK A01 T01760063  RH  047%=      5-min Rain = 0
KCO2 191625Z 19008KT 18/06 A30 RMK A01 T01760063  RH  047%=      5-min Rain = 0
KCO2 191626Z 18008KT 18/06 A30 RMK A01 T01770064  RH  048%=      5-min Rain = 0
KCO2 191627Z 18007KT 18/06 A30 RMK A01 T01780063  RH  047%=      5-min Rain = 0
KCO2 191628Z 19007KT 18/06 A30 RMK A01 T01780063  RH  047%=      5-min Rain = 0
KCO2 191629Z 18008KT 18/06 A30 RMK A01 T01770063  RH  047%=      5-min Rain = 0
KCO2 191630Z 18008KT 18/06 A30 RMK A01 T01770063  RH  047%=      5-min Rain = 0
KCO2 191631Z 18009KT 18/06 A30 RMK A01 T01790064  RH  047%=      5-min Rain = 0
KCO2 191632Z 18007KT 18/06 A30 RMK A01 T01800064  RH  047%=      5-min Rain = 0
KCO2 191633Z 20006KT 18/06 A30 RMK A01 T01810064  RH  046%=      5-min Rain = 0
KCO2 191634Z 21007KT 18/07 A30 RMK A01 T01820065  RH  046%=      5-min Rain = 0
KCO2 191635Z 22009KT 18/07 A2999 RMK A01 T01820065  RH  046%=      5-min Rain = 0
KCO2 191636Z 18008KT 18/07 A2999 RMK A01 T01820065  RH  046%=      5-min Rain = 0
KCO2 191637Z 18007KT 18/06 A2999 RMK A01 T01830064  RH  046%=      5-min Rain = 0
KCO2 191638Z 18008KT 18/06 A2999 RMK A01 T01820064  RH  046%=      5-min Rain = 0
KCO2 191639Z 19007KT 18/06 A2999 RMK A01 T01820064  RH  046%=      5-min Rain = 0
KCO2 191640Z 18007KT 18/06 A2999 RMK A01 T01820064  RH  046%=      5-min Rain = 0
KCO2 191641Z 17007KT 18/06 A2999 RMK A01 T01820064  RH  046%=      5-min Rain = 0
KCO2 191642Z 18007KT 18/07 A2999 RMK A01 T01840065  RH  046%=      5-min Rain = 0
KCO2 191643Z 19007KT 19/07 A2999 RMK A01 T01860065  RH  045%=      5-min Rain = 0
KCO2 191644Z 21006KT 19/07 A2999 RMK A01 T01860066  RH  045%=      5-min Rain = 0
KCO2 191645Z 20006KT 19/07 A2999 RMK A01 T01870066  RH  045%=      5-min Rain = 0
KCO2 191646Z 18007KT 19/07 A2999 RMK A01 T01880067  RH  045%=      5-min Rain = 0
KCO2 191647Z 20005KT 19/07 A2999 RMK A01 T01890067  RH  045%=      5-min Rain = 0
KCO2 191648Z 18006KT 19/07 A2999 RMK A01 T01920068  RH  044%=      5-min Rain = 0
KCO2 191649Z 18006KT 19/07 A2999 RMK A01 T01920066  RH  044%=      5-min Rain = 0
KCO2 191650Z 18008KT 19/07 A2999 RMK A01 T01910067  RH  044%=      5-min Rain = 0
KCO2 191651Z 20008KT 19/07 A2999 RMK A01 T01890067  RH  045%=      5-min Rain = 0
KCO2 191652Z 21008KT 19/07 A2999 RMK A01 T01880067  RH  045%=      5-min Rain = 0
KCO2 191653Z 20006KT 19/07 A2999 RMK A01 T01870067  RH  045%=      5-min Rain = 0
KCO2 191654Z 18008KT 19/07 A2999 RMK A01 T01880067  RH  045%=      5-min Rain = 0
KCO2 191655Z 18007KT 19/07 A2998 RMK A01 T01880066  RH  045%=      5-min Rain = 0
KCO2 191656Z 17008KT 19/07 A2998 RMK A01 T01870067  RH  046%=      5-min Rain = 0
KCO2 191657Z 17009KT 19/07 A2998 RMK A01 T01870067  RH  045%=      5-min Rain = 0
KCO2 191658Z 19008KT 19/07 A2998 RMK A01 T01880067  RH  045%=      5-min Rain = 0
KCO2 191659Z 18007KT 19/07 A2998 RMK A01 T01870068  RH  046%=      5-min Rain = 0
KCO2 191700Z 19007KT 19/07 A2998 RMK A01 T01880068  RH  046%=      5-min Rain = 0
KCO2 191701Z 20007KT 19/07 A2998 RMK A01 T01920069  RH  045%=      5-min Rain = 0
KCO2 191702Z 21007KT 19/07 A2998 RMK A01 T01930069  RH  044%=      5-min Rain = 0
KCO2 191703Z 18008KT 19/07 A2998 RMK A01 T01940069  RH  044%=      5-min Rain = 0
KCO2 191704Z 17009KT 20/07 A2998 RMK A01 T01960070  RH  044%=      5-min Rain = 0
KCO2 191705Z 18009KT 20/07 A2998 RMK A01 T01970069  RH  043%=      5-min Rain = 0
KCO2 191706Z 18007KT 20/07 A2998 RMK A01 T01970069  RH  043%=      5-min Rain = 0
KCO2 191707Z 18010KT 20/07 A2998 RMK A01 T01970070  RH  043%=      5-min Rain = 0
KCO2 191708Z 18009KT 20/07 A2998 RMK A01 T01990069  RH  043%=      5-min Rain = 0
KCO2 191709Z 18007KT 20/07 A2998 RMK A01 T01990070  RH  043%=      5-min Rain = 0
KCO2 191710Z 19006KT 20/07 A2998 RMK A01 T02000071  RH  043%=      5-min Rain = 0
KCO2 191711Z 19008KT 20/07 A2998 RMK A01 T02030072  RH  042%=      5-min Rain = 0
KCO2 191712Z 20010KT 20/07 A2998 RMK A01 T02040070  RH  042%=      5-min Rain = 0
KCO2 191713Z 20010KT 20/07 A2998 RMK A01 T02030070  RH  042%=      5-min Rain = 0
KCO2 191714Z 19007KT 20/07 A2998 RMK A01 T02010070  RH  042%=      5-min Rain = 0
KCO2 191715Z 18009KT 20/07 A2998 RMK A01 T02010070  RH  043%=      5-min Rain = 0
KCO2 191716Z 18010KT 20/07 A2998 RMK A01 T02020071  RH  042%=      5-min Rain = 0
KCO2 191717Z 19009KT 20/07 A2997 RMK A01 T02030070  RH  042%=      5-min Rain = 0
KCO2 191718Z 19009KT 20/07 A2997 RMK A01 T02040071  RH  042%=      5-min Rain = 0
KCO2 191719Z 20009KT 21/07 A2997 RMK A01 T02050071  RH  042%=      5-min Rain = 0
KCO2 191720Z 20007KT 20/07 A2997 RMK A01 T02040071  RH  042%=      5-min Rain = 0
KCO2 191721Z 20009KT 20/07 A2997 RMK A01 T02040071  RH  042%=      5-min Rain = 0
KCO2 191722Z 20007KT 21/07 A2997 RMK A01 T02050071  RH  042%=      5-min Rain = 0
KCO2 191723Z 18006KT 21/07 A2997 RMK A01 T02050071  RH  042%=      5-min Rain = 0
KCO2 191724Z 17009KT 21/07 A2997 RMK A01 T02080072  RH  042%=      5-min Rain = 0
KCO2 191725Z 18008KT 21/07 A2997 RMK A01 T02090071  RH  041%=      5-min Rain = 0
KCO2 191726Z 19008KT 21/07 A2997 RMK A01 T02090071  RH  041%=      5-min Rain = 0
KCO2 191727Z 19008KT 21/07 A2997 RMK A01 T02080071  RH  041%=      5-min Rain = 0
KCO2 191728Z 18007KT 21/07 A2997 RMK A01 T02090072  RH  041%=      5-min Rain = 0
KCO2 191729Z 18011KT 21/07 A2997 RMK A01 T02100072  RH  041%=      5-min Rain = 0
KCO2 191730Z 18011KT 21/07 A2997 RMK A01 T02120073  RH  040%=      5-min Rain = 0
KCO2 191731Z 20009KT 21/07 A2997 RMK A01 T02130072  RH  040%=      5-min Rain = 0
KCO2 191732Z 19007KT 21/07 A2997 RMK A01 T02120073  RH  040%=      5-min Rain = 0
KCO2 191733Z 17009KT 21/07 A2997 RMK A01 T02140073  RH  040%=      5-min Rain = 0
KCO2 191734Z 18009KT 22/07 A2997 RMK A01 T02160073  RH  040%=      5-min Rain = 0
KCO2 191735Z 18009KT 22/07 A2997 RMK A01 T02180074  RH  039%=      5-min Rain = 0
KCO2 191736Z 18009KT 22/07 A2997 RMK A01 T02200073  RH  039%=      5-min Rain = 0
KCO2 191737Z 19008KT 22/07 A2997 RMK A01 T02200073  RH  039%=      5-min Rain = 0
KCO2 191738Z 19009KT 22/07 A2997 RMK A01 T02200073  RH  039%=      5-min Rain = 0
KCO2 191739Z 20009KT 22/07 A2996 RMK A01 T02210073  RH  038%=      5-min Rain = 0
KCO2 191740Z 19008KT 22/07 A2996 RMK A01 T02210073  RH  038%=      5-min Rain = 0
KCO2 191741Z 19009KT 22/07 A2996 RMK A01 T02230074  RH  038%=      5-min Rain = 0
KCO2 191742Z 19006KT 22/07 A2996 RMK A01 T02240074  RH  038%=      5-min Rain = 0
KCO2 191743Z 19008KT 23/07 A2996 RMK A01 T02250074  RH  038%=      5-min Rain = 0
KCO2 191744Z 17010KT 23/07 A2996 RMK A01 T02270074  RH  037%=      5-min Rain = 0
KCO2 191745Z 18009KT 23/07 A2996 RMK A01 T02280074  RH  037%=      5-min Rain = 0
KCO2 191746Z 18008KT 23/07 A2996 RMK A01 T02290074  RH  037%=      5-min Rain = 0
KCO2 191747Z 18010KT 23/07 A2996 RMK A01 T02310074  RH  037%=      5-min Rain = 0
KCO2 191748Z 18010KT 23/07 A2996 RMK A01 T02300074  RH  036%=      5-min Rain = 0
KCO2 191749Z 18008KT 23/07 A2996 RMK A01 T02290073  RH  037%=      5-min Rain = 0
KCO2 191750Z 20008KT 23/07 A2996 RMK A01 T02270074  RH  037%=      5-min Rain = 0
KCO2 191751Z 19012G17KT 23/07 A2996 RMK A01 T02280073  RH  037%=      5-min Rain = 0
KCO2 191752Z 19010KT 23/07 A2996 RMK A01 T02290073  RH  037%=      5-min Rain = 0
KCO2 191753Z 19011KT 23/07 A2995 RMK A01 T02300073  RH  036%=      5-min Rain = 0
KCO2 191754Z 18011KT 23/07 A2995 RMK A01 T02310074  RH  036%=      5-min Rain = 0
KCO2 191755Z 18010KT 23/07 A2995 RMK A01 T02310073  RH  036%=      5-min Rain = 0
KCO2 191756Z 20010G15KT 23/07 A2995 RMK A01 T02320074  RH  036%=      5-min Rain = 0
KCO2 191757Z 19009KT 23/07 A2995 RMK A01 T02330073  RH  036%=      5-min Rain = 0
KCO2 191758Z 18011KT 23/07 A2995 RMK A01 T02320073  RH  036%=      5-min Rain = 0
KCO2 191759Z 18011KT 23/07 A2995 RMK A01 T02320073  RH  036%=      5-min Rain = 0
KCO2 191800Z 19009KT 24/08 A2995 RMK A01 T02350075  RH  036%=      5-min Rain = 0
KCO2 191801Z 19013KT 24/07 A2995 RMK A01 T02390074  RH  035%=      5-min Rain = 0
KCO2 191802Z 18012KT 24/07 A2995 RMK A01 T02410073  RH  034%=      5-min Rain = 0
KCO2 191803Z 18011KT 24/07 A2995 RMK A01 T02400073  RH  034%=      5-min Rain = 0
KCO2 191804Z 19009KT 24/07 A2995 RMK A01 T02400073  RH  034%=      5-min Rain = 0
KCO2 191805Z 19013KT 24/07 A2995 RMK A01 T02410074  RH  034%=      5-min Rain = 0
KCO2 191806Z 18014KT 24/07 A2995 RMK A01 T02440072  RH  033%=      5-min Rain = 0
KCO2 191807Z 18011KT 24/07 A2995 RMK A01 T02430072  RH  034%=      5-min Rain = 0
KCO2 191808Z 18011KT 24/07 A2994 RMK A01 T02410072  RH  034%=      5-min Rain = 0
KCO2 191809Z 18014KT 24/07 A2994 RMK A01 T02420073  RH  034%=      5-min Rain = 0
KCO2 191810Z 19011KT 24/07 A2994 RMK A01 T02430073  RH  034%=      5-min Rain = 0
KCO2 191811Z 20011G16KT 24/07 A2994 RMK A01 T02440073  RH  034%=      5-min Rain = 0
KCO2 191812Z 19012KT 25/07 A2994 RMK A01 T02460073  RH  033%=      5-min Rain = 0
KCO2 191813Z 17012KT 25/07 A2994 RMK A01 T02460073  RH  033%=      5-min Rain = 0
KCO2 191814Z 18011KT 25/07 A2994 RMK A01 T02480074  RH  033%=      5-min Rain = 0
KCO2 191815Z 17010KT 25/07 A2994 RMK A01 T02490073  RH  033%=      5-min Rain = 0
KCO2 191816Z 17015KT 25/07 A2993 RMK A01 T02500073  RH  032%=      5-min Rain = 0
KCO2 191817Z 17012KT 25/07 A2993 RMK A01 T02500072  RH  032%=      5-min Rain = 0
KCO2 191818Z 17015KT 25/07 A2993 RMK A01 T02500071  RH  032%=      5-min Rain = 0
KCO2 191819Z 18012KT 25/07 A2993 RMK A01 T02490070  RH  032%=      5-min Rain = 0
KCO2 191820Z 17013G18KT 25/07 A2993 RMK A01 T02490071  RH  032%=      5-min Rain = 0
KCO2 191821Z 17015KT 25/07 A2993 RMK A01 T02490070  RH  032%=      5-min Rain = 0
KCO2 191822Z 18013KT 25/07 A2993 RMK A01 T02490069  RH  032%=      5-min Rain = 0
KCO2 191823Z 19013KT 25/07 A2993 RMK A01 T02490070  RH  032%=      5-min Rain = 0
KCO2 191824Z 18013KT 25/07 A2993 RMK A01 T02500069  RH  031%=      5-min Rain = 0
KCO2 191825Z 18013KT 25/07 A2993 RMK A01 T02500069  RH  031%=      5-min Rain = 0
KCO2 191826Z 18015KT 25/07 A2993 RMK A01 T02490068  RH  031%=      5-min Rain = 0
KCO2 191827Z 18013KT 25/07 A2993 RMK A01 T02490067  RH  031%=      5-min Rain = 0
KCO2 191828Z 18013G18KT 25/07 A2992 RMK A01 T02490068  RH  031%=      5-min Rain = 0
KCO2 191829Z 19014KT 25/07 A2992 RMK A01 T02490068  RH  031%=      5-min Rain = 0
KCO2 191830Z 19014KT 25/07 A2992 RMK A01 T02500068  RH  031%=      5-min Rain = 0
KCO2 191831Z 19013KT 25/07 A2992 RMK A01 T02520068  RH  031%=      5-min Rain = 0
KCO2 191832Z 19013KT 25/07 A2992 RMK A01 T02540066  RH  030%=      5-min Rain = 0
KCO2 191833Z 20012KT 26/07 A2992 RMK A01 T02550067  RH  030%=      5-min Rain = 0
KCO2 191834Z 20015KT 25/07 A2992 RMK A01 T02530068  RH  031%=      5-min Rain = 0
KCO2 191835Z 19014KT 25/07 A2992 RMK A01 T02510068  RH  031%=      5-min Rain = 0
KCO2 191836Z 19014KT 25/07 A2992 RMK A01 T02510068  RH  031%=      5-min Rain = 0
KCO2 191837Z 19014KT 25/07 A2992 RMK A01 T02520067  RH  031%=      5-min Rain = 0
KCO2 191838Z 19015KT 25/07 A2992 RMK A01 T02520068  RH  031%=      5-min Rain = 0
KCO2 191839Z 19015KT 25/07 A2992 RMK A01 T02520068  RH  031%=      5-min Rain = 0
KCO2 191840Z 19012KT 25/07 A2991 RMK A01 T02520069  RH  031%=      5-min Rain = 0
KCO2 191841Z 19014KT 25/07 A2991 RMK A01 T02540069  RH  031%=      5-min Rain = 0
KCO2 191842Z 18014KT 26/07 A2991 RMK A01 T02550069  RH  030%=      5-min Rain = 0
KCO2 191843Z 19014KT 26/07 A2991 RMK A01 T02550070  RH  031%=      5-min Rain = 0
KCO2 191844Z 18011KT 26/07 A2991 RMK A01 T02550070  RH  031%=      5-min Rain = 0
KCO2 191845Z 19014KT 25/07 A2991 RMK A01 T02540069  RH  031%=      5-min Rain = 0
KCO2 191846Z 18012KT 25/07 A2991 RMK A01 T02540068  RH  030%=      5-min Rain = 0
KCO2 191847Z 19015KT 26/07 A2991 RMK A01 T02560068  RH  030%=      5-min Rain = 0
KCO2 191848Z 19015KT 26/07 A2991 RMK A01 T02570068  RH  030%=      5-min Rain = 0
KCO2 191849Z 19014KT 26/07 A2991 RMK A01 T02560067  RH  030%=      5-min Rain = 0
KCO2 191850Z 20013KT 26/07 A2991 RMK A01 T02560067  RH  030%=      5-min Rain = 0
KCO2 191851Z 18012KT 26/07 A2991 RMK A01 T02560067  RH  030%=      5-min Rain = 0
KCO2 191852Z 19013KT 26/07 A2991 RMK A01 T02580068  RH  030%=      5-min Rain = 0
KCO2 191853Z 19013KT 26/07 A2991 RMK A01 T02590067  RH  029%=      5-min Rain = 0
KCO2 191854Z 18015KT 26/06 A299 RMK A01 T02610063  RH  028%=      5-min Rain = 0
KCO2 191855Z 19015KT 26/06 A2991 RMK A01 T02600062  RH  028%=      5-min Rain = 0
KCO2 191856Z 18016KT 26/06 A299 RMK A01 T02590061  RH  028%=      5-min Rain = 0
KCO2 191857Z 18017KT 26/06 A299 RMK A01 T02590063  RH  029%=      5-min Rain = 0
KCO2 191858Z 19015KT 26/06 A2991 RMK A01 T02580064  RH  029%=      5-min Rain = 0
KCO2 191859Z 18016KT 26/06 A299 RMK A01 T02580060  RH  028%=      5-min Rain = 0
KCO2 191900Z 18014KT 26/06 A299 RMK A01 T02590059  RH  028%=      5-min Rain = 0
KCO2 191901Z 18014KT 26/06 A299 RMK A01 T02610060  RH  028%=      5-min Rain = 0
KCO2 191902Z 19014G19KT 26/06 A299 RMK A01 T02630061  RH  027%=      5-min Rain = 0
KCO2 191903Z 20014KT 26/06 A299 RMK A01 T02640061  RH  027%=      5-min Rain = 0
KCO2 191904Z 19015KT 26/06 A299 RMK A01 T02610060  RH  028%=      5-min Rain = 0
KCO2 191905Z 19012KT 26/06 A299 RMK A01 T02590059  RH  028%=      5-min Rain = 0
KCO2 191906Z 19014KT 26/06 A299 RMK A01 T02580061  RH  028%=      5-min Rain = 0
KCO2 191907Z 20014KT 26/06 A299 RMK A01 T02580058  RH  028%=      5-min Rain = 0
KCO2 191908Z 19012KT 26/06 A299 RMK A01 T02580059  RH  028%=      5-min Rain = 0
KCO2 191909Z 18012KT 26/06 A299 RMK A01 T02600061  RH  028%=      5-min Rain = 0
KCO2 191910Z 20010KT 26/06 A299 RMK A01 T02630062  RH  028%=      5-min Rain = 0
KCO2 191911Z 20013KT 27/06 A299 RMK A01 T02660064  RH  028%=      5-min Rain = 0
KCO2 191912Z 19015KT 27/06 A299 RMK A01 T02650060  RH  027%=      5-min Rain = 0
KCO2 191913Z 19015KT 26/06 A299 RMK A01 T02630061  RH  028%=      5-min Rain = 0
KCO2 191914Z 18013KT 26/06 A299 RMK A01 T02610059  RH  027%=      5-min Rain = 0
KCO2 191915Z 17015KT 26/06 A299 RMK A01 T02610058  RH  027%=      5-min Rain = 0
KCO2 191916Z 16014KT 26/06 A299 RMK A01 T02610055  RH  027%=      5-min Rain = 0
KCO2 191917Z 18012KT 26/06 A299 RMK A01 T02610057  RH  027%=      5-min Rain = 0
KCO2 191918Z 18013KT 26/06 A2989 RMK A01 T02630059  RH  027%=      5-min Rain = 0
KCO2 191919Z 18014KT 27/06 A2989 RMK A01 T02650060  RH  027%=      5-min Rain = 0
KCO2 191920Z 19010KT 27/06 A2989 RMK A01 T02670061  RH  027%=      5-min Rain = 0
KCO2 191921Z 20012KT 27/06 A2989 RMK A01 T02690061  RH  026%=      5-min Rain = 0
KCO2 191922Z 19013KT 27/06 A2989 RMK A01 T02680058  RH  026%=      5-min Rain = 0
KCO2 191923Z 19012G18KT 27/06 A2989 RMK A01 T02660059  RH  027%=      5-min Rain = 0
KCO2 191924Z 19014KT 27/06 A2989 RMK A01 T02660061  RH  027%=      5-min Rain = 0
KCO2 191925Z 20015KT 27/06 A2989 RMK A01 T02650060  RH  027%=      5-min Rain = 0
KCO2 191926Z 20010KT 26/06 A2989 RMK A01 T02640060  RH  027%=      5-min Rain = 0
KCO2 191927Z 19011KT 26/06 A2989 RMK A01 T02630061  RH  028%=      5-min Rain = 0
KCO2 191928Z 18012KT 26/06 A2989 RMK A01 T02640063  RH  028%=      5-min Rain = 0
KCO2 191929Z 18013KT 27/06 A2989 RMK A01 T02660062  RH  027%=      5-min Rain = 0
KCO2 191930Z 18012KT 27/06 A2989 RMK A01 T02680064  RH  027%=      5-min Rain = 0
KCO2 191931Z 19012KT 27/06 A2989 RMK A01 T02680063  RH  027%=      5-min Rain = 0
KCO2 191932Z 18014KT 27/06 A2989 RMK A01 T02660063  RH  027%=      5-min Rain = 0
KCO2 191933Z 19013KT 27/06 A2989 RMK A01 T02670061  RH  027%=      5-min Rain = 0
KCO2 191934Z 19011KT 27/06 A2989 RMK A01 T02670061  RH  027%=      5-min Rain = 0
KCO2 191935Z 19011KT 27/06 A2989 RMK A01 T02670062  RH  027%=      5-min Rain = 0
KCO2 191936Z 18012KT 27/06 A2989 RMK A01 T02670062  RH  027%=      5-min Rain = 0
KCO2 191937Z 16015KT 27/06 A2989 RMK A01 T02690061  RH  027%=      5-min Rain = 0
KCO2 191938Z 18013KT 27/06 A2989 RMK A01 T02690060  RH  026%=      5-min Rain = 0
KCO2 191939Z 17010KT 27/06 A2988 RMK A01 T02670056  RH  026%=      5-min Rain = 0
KCO2 191940Z 18014KT 27/06 A2988 RMK A01 T02660057  RH  026%=      5-min Rain = 0
KCO2 191941Z 18011G17KT 27/06 A2988 RMK A01 T02650057  RH  026%=      5-min Rain = 0
KCO2 191942Z 18015KT 27/06 A2988 RMK A01 T02660058  RH  027%=      5-min Rain = 0
KCO2 191943Z 17013KT 27/06 A2988 RMK A01 T02660059  RH  027%=      5-min Rain = 0
KCO2 191944Z 18009KT 27/06 A2988 RMK A01 T02650060  RH  027%=      5-min Rain = 0
KCO2 191945Z 18011G16KT 27/06 A2988 RMK A01 T02680061  RH  027%=      5-min Rain = 0
KCO2 191946Z 20013KT 27/06 A2988 RMK A01 T02690058  RH  026%=      5-min Rain = 0
KCO2 191947Z 21013KT 27/06 A2988 RMK A01 T02690056  RH  026%=      5-min Rain = 0
KCO2 191948Z 20014KT 27/06 A2988 RMK A01 T02670057  RH  026%=      5-min Rain = 0
KCO2 191949Z 20011KT 27/06 A2988 RMK A01 T02660056  RH  026%=      5-min Rain = 0
KCO2 191950Z 19015KT 27/06 A2988 RMK A01 T02660056  RH  026%=      5-min Rain = 0
KCO2 191951Z 18013KT 27/05 A2988 RMK A01 T02670050  RH  025%=      5-min Rain = 0
KCO2 191952Z 19013KT 27/05 A2987 RMK A01 T02670052  RH  025%=      5-min Rain = 0
KCO2 191953Z 20015KT 27/05 A2987 RMK A01 T02680053  RH  025%=      5-min Rain = 0
KCO2 191954Z 20013KT 27/06 A2987 RMK A01 T02680055  RH  026%=      5-min Rain = 0
KCO2 191955Z 19013KT 27/06 A2987 RMK A01 T02680057  RH  026%=      5-min Rain = 0
KCO2 191956Z 19011KT 27/06 A2987 RMK A01 T02690058  RH  026%=      5-min Rain = 0
KCO2 191957Z 17011KT 27/06 A2987 RMK A01 T02700059  RH  026%=      5-min Rain = 0
KCO2 191958Z 18012KT 27/06 A2987 RMK A01 T02730057  RH  025%=      5-min Rain = 0
KCO2 191959Z 17014KT 27/06 A2987 RMK A01 T02730056  RH  025%=      5-min Rain = 0
KCO2 192000Z 18013KT 27/06 A2987 RMK A01 T02730056  RH  025%=      5-min Rain = 0
KCO2 192001Z 18015KT 27/06 A2987 RMK A01 T02730057  RH  025%=      5-min Rain = 0
KCO2 192002Z 18015KT 27/06 A2987 RMK A01 T02720057  RH  025%=      5-min Rain = 0
KCO2 192003Z 18012KT 27/06 A2987 RMK A01 T02700057  RH  026%=      5-min Rain = 0
KCO2 192004Z 18014KT 27/06 A2987 RMK A01 T02700057  RH  026%=      5-min Rain = 0
KCO2 192005Z 19013KT 27/06 A2987 RMK A01 T02690056  RH  026%=      5-min Rain = 0
KCO2 192006Z 19010KT 27/06 A2987 RMK A01 T02690057  RH  026%=      5-min Rain = 0
KCO2 192007Z 19011KT 27/06 A2987 RMK A01 T02710059  RH  026%=      5-min Rain = 0
KCO2 192008Z 18011KT 27/06 A2986 RMK A01 T02730059  RH  026%=      5-min Rain = 0
KCO2 192009Z 17011KT 27/06 A2986 RMK A01 T02740060  RH  026%=      5-min Rain = 0
KCO2 192010Z 18012KT 28/06 A2986 RMK A01 T02760059  RH  025%=      5-min Rain = 0
KCO2 192011Z 19011KT 28/06 A2986 RMK A01 T02770057  RH  025%=      5-min Rain = 0
KCO2 192012Z 20011KT 28/06 A2986 RMK A01 T02770058  RH  025%=      5-min Rain = 0
KCO2 192013Z 19009KT 28/06 A2986 RMK A01 T02760058  RH  025%=      5-min Rain = 0
KCO2 192014Z 17010KT 28/06 A2986 RMK A01 T02750057  RH  025%=      5-min Rain = 0
KCO2 192015Z 18009KT 27/06 A2986 RMK A01 T02740056  RH  025%=      5-min Rain = 0
KCO2 192016Z 18011KT 27/06 A2986 RMK A01 T02740058  RH  025%=      5-min Rain = 0
KCO2 192017Z 18013KT 28/06 A2986 RMK A01 T02770058  RH  025%=      5-min Rain = 0
KCO2 192018Z 18012KT 28/06 A2986 RMK A01 T02780057  RH  024%=      5-min Rain = 0
KCO2 192019Z 18011KT 28/06 A2986 RMK A01 T02780057  RH  024%=      5-min Rain = 0
KCO2 192020Z 18012KT 28/06 A2986 RMK A01 T02780055  RH  024%=      5-min Rain = 0
KCO2 192021Z 18014KT 28/06 A2986 RMK A01 T02760055  RH  024%=      5-min Rain = 0
KCO2 192022Z 18010KT 27/06 A2986 RMK A01 T02740055  RH  025%=      5-min Rain = 0
KCO2 192023Z 19011KT 27/06 A2986 RMK A01 T02730055  RH  025%=      5-min Rain = 0
KCO2 192024Z 21012KT 27/06 A2986 RMK A01 T02740056  RH  025%=      5-min Rain = 0
KCO2 192025Z 20010KT 27/06 A2986 RMK A01 T02740057  RH  025%=      5-min Rain = 0
KCO2 192026Z 17013KT 28/06 A2986 RMK A01 T02750057  RH  025%=      5-min Rain = 0
KCO2 192027Z 16012KT 28/06 A2986 RMK A01 T02750056  RH  025%=      5-min Rain = 0
KCO2 192028Z 17012KT 27/06 A2986 RMK A01 T02740057  RH  025%=      5-min Rain = 0
KCO2 192029Z 17010KT 27/06 A2986 RMK A01 T02720057  RH  025%=      5-min Rain = 0
KCO2 192030Z 18010KT 27/06 A2986 RMK A01 T02720057  RH  025%=      5-min Rain = 0
KCO2 192031Z 21010KT 27/06 A2986 RMK A01 T02730058  RH  025%=      5-min Rain = 0
KCO2 192032Z 20009KT 27/06 A2986 RMK A01 T02740059  RH  025%=      5-min Rain = 0
KCO2 192033Z 19011KT 28/06 A2985 RMK A01 T02750059  RH  025%=      5-min Rain = 0
KCO2 192034Z 19010KT 28/06 A2985 RMK A01 T02750058  RH  025%=      5-min Rain = 0
KCO2 192035Z 19012KT 27/06 A2985 RMK A01 T02730059  RH  026%=      5-min Rain = 0
KCO2 192036Z 19012KT 27/06 A2985 RMK A01 T02730059  RH  026%=      5-min Rain = 0
KCO2 192037Z 17012KT 27/06 A2985 RMK A01 T02720059  RH  026%=      5-min Rain = 0
KCO2 192038Z 16010KT 27/06 A2985 RMK A01 T02720059  RH  026%=      5-min Rain = 0
KCO2 192039Z 16011KT 27/06 A2985 RMK A01 T02720059  RH  026%=      5-min Rain = 0
KCO2 192040Z 18010KT 27/06 A2985 RMK A01 T02720060  RH  026%=      5-min Rain = 0
KCO2 192041Z 18014KT 27/06 A2985 RMK A01 T02730060  RH  026%=      5-min Rain = 0
KCO2 192042Z 17015KT 27/06 A2985 RMK A01 T02730060  RH  026%=      5-min Rain = 0
KCO2 192043Z 17015KT 27/06 A2985 RMK A01 T02730059  RH  026%=      5-min Rain = 0
KCO2 192044Z 17013KT 27/06 A2985 RMK A01 T02710059  RH  026%=      5-min Rain = 0
KCO2 192045Z 19012KT 27/06 A2985 RMK A01 T02720058  RH  026%=      5-min Rain = 0
KCO2 192046Z 18013KT 27/06 A2985 RMK A01 T02720059  RH  026%=      5-min Rain = 0
KCO2 192047Z 19015KT 27/06 A2985 RMK A01 T02720059  RH  026%=      5-min Rain = 0
KCO2 192048Z 19013KT 27/06 A2985 RMK A01 T02700058  RH  026%=      5-min Rain = 0
KCO2 192049Z 18011KT 27/06 A2985 RMK A01 T02690057  RH  026%=      5-min Rain = 0
KCO2 192050Z 19011KT 27/06 A2985 RMK A01 T02690057  RH  026%=      5-min Rain = 0
KCO2 192051Z 19008KT 27/06 A2985 RMK A01 T02700056  RH  026%=      5-min Rain = 0
KCO2 192052Z 18007KT 27/06 A2985 RMK A01 T02720057  RH  025%=      5-min Rain = 0
KCO2 192053Z 18007KT 27/06 A2985 RMK A01 T02730058  RH  025%=      5-min Rain = 0
KCO2 192054Z 17010KT 27/06 A2985 RMK A01 T02740057  RH  025%=      5-min Rain = 0
KCO2 192055Z 17012KT 27/06 A2985 RMK A01 T02720057  RH  025%=      5-min Rain = 0
KCO2 192056Z 17012KT 27/06 A2985 RMK A01 T02700058  RH  026%=      5-min Rain = 0
KCO2 192057Z 16013KT 27/06 A2985 RMK A01 T02680057  RH  026%=      5-min Rain = 0
KCO2 192058Z 17015KT 27/06 A2985 RMK A01 T02670058  RH  026%=      5-min Rain = 0
KCO2 192059Z 17011KT 27/06 A2985 RMK A01 T02670058  RH  026%=      5-min Rain = 0
KCO2 192100Z 17011KT 27/06 A2985 RMK A01 T02670058  RH  026%=      5-min Rain = 0
KCO2 192101Z 17010KT 27/06 A2985 RMK A01 T02660057  RH  026%=      5-min Rain = 0
KCO2 192102Z 18009KT 27/06 A2985 RMK A01 T02650057  RH  026%=      5-min Rain = 0
KCO2 192103Z 17013KT 26/06 A2985 RMK A01 T02640057  RH  027%=      5-min Rain = 0
KCO2 192104Z 18013KT 27/06 A2985 RMK A01 T02650057  RH  026%=      5-min Rain = 0
KCO2 192105Z 18013KT 27/06 A2985 RMK A01 T02660056  RH  026%=      5-min Rain = 0
KCO2 192106Z 18012KT 27/06 A2985 RMK A01 T02660056  RH  026%=      5-min Rain = 0
KCO2 192107Z 19013KT 27/06 A2985 RMK A01 T02660056  RH  026%=      5-min Rain = 0
KCO2 192108Z 19010KT 27/06 A2985 RMK A01 T02660056  RH  026%=      5-min Rain = 0
KCO2 192109Z 18010KT 27/06 A2985 RMK A01 T02680058  RH  026%=      5-min Rain = 0
KCO2 192110Z 17011G16KT 27/06 A2985 RMK A01 T02710059  RH  026%=      5-min Rain = 0
KCO2 192111Z 17013KT 27/06 A2985 RMK A01 T02740058  RH  025%=      5-min Rain = 0
KCO2 192112Z 17012KT 28/06 A2985 RMK A01 T02750057  RH  025%=      5-min Rain = 0
KCO2 192113Z 17012KT 28/06 A2985 RMK A01 T02760057  RH  025%=      5-min Rain = 0
KCO2 192114Z 18013KT 28/06 A2985 RMK A01 T02770057  RH  025%=      5-min Rain = 0
KCO2 192115Z 17015KT 28/06 A2984 RMK A01 T02760057  RH  025%=      5-min Rain = 0
KCO2 192116Z 17013KT 28/06 A2984 RMK A01 T02760057  RH  025%=      5-min Rain = 0
KCO2 192117Z 17011KT 28/06 A2984 RMK A01 T02750057  RH  025%=      5-min Rain = 0
KCO2 192118Z 18013KT 27/06 A2984 RMK A01 T02740056  RH  025%=      5-min Rain = 0
KCO2 192119Z 18011KT 28/06 A2984 RMK A01 T02750055  RH  025%=      5-min Rain = 0
KCO2 192120Z 17013KT 28/06 A2984 RMK A01 T02750056  RH  025%=      5-min Rain = 0
KCO2 192121Z 17013KT 27/06 A2984 RMK A01 T02740055  RH  025%=      5-min Rain = 0
KCO2 192122Z 18014KT 27/06 A2984 RMK A01 T02740056  RH  025%=      5-min Rain = 0
KCO2 192123Z 18012KT 27/06 A2984 RMK A01 T02740056  RH  025%=      5-min Rain = 0
KCO2 192124Z 18014KT 27/06 A2984 RMK A01 T02740056  RH  025%=      5-min Rain = 0
KCO2 192125Z 18014KT 27/06 A2984 RMK A01 T02740056  RH  025%=      5-min Rain = 0
KCO2 192126Z 19012KT 27/06 A2984 RMK A01 T02720057  RH  025%=      5-min Rain = 0
KCO2 192127Z 17012KT 27/06 A2984 RMK A01 T02720058  RH  025%=      5-min Rain = 0
KCO2 192128Z 18013KT 27/06 A2984 RMK A01 T02730058  RH  025%=      5-min Rain = 0
KCO2 192129Z 19013KT 27/06 A2984 RMK A01 T02730058  RH  025%=      5-min Rain = 0
KCO2 192130Z 18011KT 27/06 A2984 RMK A01 T02720058  RH  025%=      5-min Rain = 0
KCO2 192131Z 20012KT 27/06 A2984 RMK A01 T02720058  RH  025%=      5-min Rain = 0
KCO2 192132Z 19009KT 27/06 A2984 RMK A01 T02730057  RH  025%=      5-min Rain = 0
KCO2 192133Z 17012KT 27/06 A2984 RMK A01 T02730059  RH  025%=      5-min Rain = 0
KCO2 192134Z 17014KT 27/06 A2984 RMK A01 T02740059  RH  025%=      5-min Rain = 0
KCO2 192135Z 18013KT 27/06 A2984 RMK A01 T02740058  RH  025%=      5-min Rain = 0
KCO2 192136Z 18011KT 27/06 A2984 RMK A01 T02730058  RH  025%=      5-min Rain = 0
KCO2 192137Z 18012KT 27/06 A2984 RMK A01 T02730057  RH  025%=      5-min Rain = 0
KCO2 192138Z 17012KT 27/06 A2984 RMK A01 T02730058  RH  025%=      5-min Rain = 0
KCO2 192139Z 18012KT 27/06 A2984 RMK A01 T02730059  RH  026%=      5-min Rain = 0
KCO2 192140Z 18014KT 27/06 A2984 RMK A01 T02730058  RH  025%=      5-min Rain = 0
KCO2 192141Z 18012KT 27/06 A2984 RMK A01 T02720058  RH  026%=      5-min Rain = 0
KCO2 192142Z 18012G17KT 27/06 A2984 RMK A01 T02720058  RH  026%=      5-min Rain = 0
KCO2 192143Z 19012KT 27/06 A2984 RMK A01 T02720058  RH  026%=      5-min Rain = 0
KCO2 192144Z 18012KT 27/06 A2984 RMK A01 T02710058  RH  026%=      5-min Rain = 0
KCO2 192145Z 18011KT 27/06 A2984 RMK A01 T02710058  RH  026%=      5-min Rain = 0
KCO2 192146Z 19009KT 27/06 A2984 RMK A01 T02710058  RH  026%=      5-min Rain = 0
KCO2 192147Z 18012KT 27/06 A2984 RMK A01 T02720059  RH  026%=      5-min Rain = 0
KCO2 192148Z 18013KT 27/06 A2984 RMK A01 T02730059  RH  026%=      5-min Rain = 0
KCO2 192149Z 17015KT 27/06 A2984 RMK A01 T02720059  RH  026%=      5-min Rain = 0
KCO2 192150Z 18013KT 27/06 A2984 RMK A01 T02710059  RH  026%=      5-min Rain = 0
KCO2 192151Z 17012G18KT 27/06 A2984 RMK A01 T02700059  RH  026%=      5-min Rain = 0
KCO2 192152Z 19013KT 27/06 A2984 RMK A01 T02700058  RH  026%=      5-min Rain = 0
KCO2 192153Z 17012KT 27/06 A2984 RMK A01 T02700058  RH  026%=      5-min Rain = 0
KCO2 192154Z 17012KT 27/06 A2984 RMK A01 T02700058  RH  026%=      5-min Rain = 0
KCO2 192155Z 17012KT 27/06 A2984 RMK A01 T02710058  RH  026%=      5-min Rain = 0
KCO2 192156Z 18011KT 27/06 A2984 RMK A01 T02710058  RH  026%=      5-min Rain = 0
KCO2 192157Z 18009KT 27/06 A2984 RMK A01 T02710057  RH  026%=      5-min Rain = 0
KCO2 192158Z 18009KT 27/06 A2984 RMK A01 T02710058  RH  026%=      5-min Rain = 0
KCO2 192159Z 19009G14KT 27/06 A2984 RMK A01 T02720058  RH  026%=      5-min Rain = 0
KCO2 192200Z 18012KT 27/06 A2984 RMK A01 T02730055  RH  025%=      5-min Rain = 0
KCO2 192201Z 19009KT 27/06 A2984 RMK A01 T02720055  RH  025%=      5-min Rain = 0
KCO2 192202Z 18008KT 27/06 A2984 RMK A01 T02720055  RH  025%=      5-min Rain = 0
KCO2 192203Z 19007KT 27/06 A2984 RMK A01 T02730056  RH  025%=      5-min Rain = 0
KCO2 192204Z 18011KT 28/06 A2984 RMK A01 T02750057  RH  025%=      5-min Rain = 0
KCO2 192205Z 17011KT 27/06 A2984 RMK A01 T02740057  RH  025%=      5-min Rain = 0
KCO2 192206Z 17010KT 27/06 A2984 RMK A01 T02730059  RH  026%=      5-min Rain = 0
KCO2 192207Z 17012KT 27/06 A2984 RMK A01 T02730058  RH  025%=      5-min Rain = 0
KCO2 192208Z 17011KT 27/06 A2984 RMK A01 T02720056  RH  025%=      5-min Rain = 0
KCO2 192209Z 16009KT 27/06 A2984 RMK A01 T02720058  RH  026%=      5-min Rain = 0
KCO2 192210Z 17009KT 27/06 A2984 RMK A01 T02720059  RH  026%=      5-min Rain = 0
KCO2 192211Z 16011KT 27/06 A2984 RMK A01 T02720060  RH  026%=      5-min Rain = 0
KCO2 192212Z 19010KT 27/06 A2984 RMK A01 T02720060  RH  026%=      5-min Rain = 0
KCO2 192213Z 17011KT 27/06 A2984 RMK A01 T02730059  RH  026%=      5-min Rain = 0
KCO2 192214Z 18010KT 27/05 A2984 RMK A01 T02730054  RH  025%=      5-min Rain = 0
KCO2 192215Z 17010KT 27/05 A2984 RMK A01 T02730052  RH  024%=      5-min Rain = 0
KCO2 192216Z 17012KT 27/05 A2984 RMK A01 T02730049  RH  024%=      5-min Rain = 0
KCO2 192217Z 17014KT 27/05 A2983 RMK A01 T02730046  RH  023%=      5-min Rain = 0
KCO2 192218Z 19012KT 27/05 A2984 RMK A01 T02720045  RH  023%=      5-min Rain = 0
KCO2 192219Z 19012KT 27/05 A2984 RMK A01 T02720045  RH  023%=      5-min Rain = 0
KCO2 192220Z 18012KT 27/04 A2983 RMK A01 T02720044  RH  023%=      5-min Rain = 0
KCO2 192221Z 18010KT 27/04 A2984 RMK A01 T02710044  RH  023%=      5-min Rain = 0
KCO2 192222Z 19013KT 27/04 A2984 RMK A01 T02710044  RH  023%=      5-min Rain = 0
KCO2 192223Z 19014KT 27/04 A2984 RMK A01 T02700044  RH  024%=      5-min Rain = 0
KCO2 192224Z 19013KT 27/05 A2984 RMK A01 T02690045  RH  024%=      5-min Rain = 0
KCO2 192225Z 19014KT 27/05 A2984 RMK A01 T02680045  RH  024%=      5-min Rain = 0
KCO2 192226Z 19013KT 27/05 A2984 RMK A01 T02680045  RH  024%=      5-min Rain = 0
KCO2 192227Z 19011KT 27/05 A2984 RMK A01 T02670045  RH  024%=      5-min Rain = 0
KCO2 192228Z 18011KT 27/05 A2984 RMK A01 T02670046  RH  024%=      5-min Rain = 0
KCO2 192229Z 18013KT 27/05 A2984 RMK A01 T02680046  RH  024%=      5-min Rain = 0
KCO2 192230Z 18012KT 27/05 A2984 RMK A01 T02680047  RH  024%=      5-min Rain = 0
KCO2 192231Z 19012KT 27/05 A2984 RMK A01 T02680047  RH  024%=      5-min Rain = 0
KCO2 192232Z 19011KT 27/05 A2984 RMK A01 T02680048  RH  024%=      5-min Rain = 0
KCO2 192233Z 19011KT 27/05 A2984 RMK A01 T02680048  RH  024%=      5-min Rain = 0
KCO2 192234Z 19013KT 27/05 A2984 RMK A01 T02680048  RH  025%=      5-min Rain = 0
KCO2 192235Z 19010KT 27/05 A2984 RMK A01 T02670049  RH  025%=      5-min Rain = 0
KCO2 192236Z 19012KT 27/05 A2984 RMK A01 T02670049  RH  025%=      5-min Rain = 0
KCO2 192237Z 20012KT 27/05 A2984 RMK A01 T02670048  RH  025%=      5-min Rain = 0
KCO2 192238Z 20011KT 27/05 A2983 RMK A01 T02660049  RH  025%=      5-min Rain = 0
KCO2 192239Z 19011KT 27/05 A2983 RMK A01 T02660049  RH  025%=      5-min Rain = 0
KCO2 192240Z 20009KT 27/05 A2983 RMK A01 T02660050  RH  025%=      5-min Rain = 0
KCO2 192241Z 19009KT 27/05 A2983 RMK A01 T02660051  RH  025%=      5-min Rain = 0
KCO2 192242Z 19010KT 27/05 A2983 RMK A01 T02660051  RH  025%=      5-min Rain = 0
KCO2 192243Z 18009KT 27/05 A2983 RMK A01 T02660051  RH  025%=      5-min Rain = 0
KCO2 192244Z 19007KT 27/05 A2983 RMK A01 T02660051  RH  025%=      5-min Rain = 0
KCO2 192245Z 19010KT 27/05 A2983 RMK A01 T02660051  RH  025%=      5-min Rain = 0
KCO2 192246Z 18012KT 27/05 A2983 RMK A01 T02650051  RH  025%=      5-min Rain = 0
KCO2 192247Z 18011KT 27/05 A2983 RMK A01 T02650050  RH  025%=      5-min Rain = 0
KCO2 192248Z 18012KT 26/05 A2983 RMK A01 T02640050  RH  025%=      5-min Rain = 0
KCO2 192249Z 18010KT 26/05 A2983 RMK A01 T02640050  RH  025%=      5-min Rain = 0
KCO2 192250Z 18008KT 26/05 A2983 RMK A01 T02630050  RH  026%=      5-min Rain = 0
KCO2 192251Z 18008KT 26/05 A2983 RMK A01 T02620051  RH  026%=      5-min Rain = 0
KCO2 192252Z 18009KT 26/05 A2983 RMK A01 T02620053  RH  026%=      5-min Rain = 0
KCO2 192253Z 18011KT 26/05 A2983 RMK A01 T02610054  RH  026%=      5-min Rain = 0
KCO2 192254Z 17008KT 26/06 A2983 RMK A01 T02610055  RH  027%=      5-min Rain = 0
KCO2 192255Z 17009KT 26/06 A2983 RMK A01 T02600056  RH  027%=      5-min Rain = 0
KCO2 192256Z 17008KT 26/06 A2983 RMK A01 T02600057  RH  027%=      5-min Rain = 0
KCO2 192257Z 16009KT 26/06 A2983 RMK A01 T02590057  RH  027%=      5-min Rain = 0
KCO2 192258Z 16008KT 26/06 A2983 RMK A01 T02590057  RH  028%=      5-min Rain = 0
KCO2 192259Z 16006KT 26/06 A2983 RMK A01 T02580058  RH  028%=      5-min Rain = 0
KCO2 192300Z 16008KT 26/06 A2983 RMK A01 T02580058  RH  028%=      5-min Rain = 0
KCO2 192301Z 16006KT 26/06 A2983 RMK A01 T02570058  RH  028%=      5-min Rain = 0
KCO2 192302Z 16007KT 26/06 A2983 RMK A01 T02570058  RH  028%=      5-min Rain = 0
KCO2 192303Z 16007KT 26/06 A2983 RMK A01 T02560057  RH  028%=      5-min Rain = 0
KCO2 192304Z 17008KT 26/06 A2983 RMK A01 T02550058  RH  028%=      5-min Rain = 0
KCO2 192305Z 17008KT 25/06 A2983 RMK A01 T02540057  RH  028%=      5-min Rain = 0
KCO2 192306Z 17008KT 25/06 A2983 RMK A01 T02540055  RH  028%=      5-min Rain = 0
KCO2 192307Z 16010KT 25/05 A2983 RMK A01 T02530053  RH  028%=      5-min Rain = 0
KCO2 192308Z 17010KT 25/05 A2983 RMK A01 T02520051  RH  027%=      5-min Rain = 0
KCO2 192309Z 17009KT 25/05 A2983 RMK A01 T02510050  RH  027%=      5-min Rain = 0
KCO2 192310Z 17009KT 25/05 A2983 RMK A01 T02510049  RH  027%=      5-min Rain = 0
KCO2 192311Z 17008KT 25/05 A2983 RMK A01 T02510049  RH  027%=      5-min Rain = 0
KCO2 192312Z 16007KT 25/05 A2983 RMK A01 T02510049  RH  027%=      5-min Rain = 0
KCO2 192313Z 16007KT 25/05 A2983 RMK A01 T02500049  RH  027%=      5-min Rain = 0
KCO2 192314Z 16008KT 25/05 A2983 RMK A01 T02490049  RH  028%=      5-min Rain = 0
KCO2 192315Z 16008KT 25/05 A2983 RMK A01 T02480049  RH  028%=      5-min Rain = 0
KCO2 192316Z 16008KT 25/05 A2983 RMK A01 T02470049  RH  028%=      5-min Rain = 0
KCO2 192317Z 16008KT 25/05 A2983 RMK A01 T02460049  RH  028%=      5-min Rain = 0
KCO2 192318Z 16007KT 25/05 A2983 RMK A01 T02450049  RH  028%=      5-min Rain = 0
KCO2 192319Z 16008KT 24/05 A2983 RMK A01 T02430048  RH  028%=      5-min Rain = 0
KCO2 192320Z 16007KT 24/05 A2983 RMK A01 T02420048  RH  029%=      5-min Rain = 0
KCO2 192321Z 16008KT 24/05 A2983 RMK A01 T02410048  RH  029%=      5-min Rain = 0
KCO2 192322Z 16008KT 24/05 A2983 RMK A01 T02400048  RH  029%=      5-min Rain = 0
KCO2 192323Z 16008KT 24/05 A2983 RMK A01 T02390048  RH  029%=      5-min Rain = 0
KCO2 192324Z 17007KT 24/05 A2983 RMK A01 T02380048  RH  029%=      5-min Rain = 0
KCO2 192325Z 17008KT 24/05 A2983 RMK A01 T02370048  RH  029%=      5-min Rain = 0
KCO2 192326Z 17008KT 24/05 A2983 RMK A01 T02360048  RH  030%=      5-min Rain = 0
KCO2 192327Z 17007KT 24/05 A2983 RMK A01 T02350048  RH  030%=      5-min Rain = 0
KCO2 192328Z 17007KT 23/05 A2983 RMK A01 T02340048  RH  030%=      5-min Rain = 0
KCO2 192329Z 17007KT 23/05 A2983 RMK A01 T02330048  RH  030%=      5-min Rain = 0
KCO2 192330Z 18006KT 23/05 A2983 RMK A01 T02320048  RH  030%=      5-min Rain = 0
KCO2 192331Z 17006KT 23/05 A2983 RMK A01 T02300048  RH  031%=      5-min Rain = 0
KCO2 192332Z 17006KT 23/05 A2983 RMK A01 T02290048  RH  031%=      5-min Rain = 0
KCO2 192333Z 17007KT 23/05 A2983 RMK A01 T02270047  RH  031%=      5-min Rain = 0
KCO2 192334Z 17007KT 23/05 A2983 RMK A01 T02270048  RH  031%=      5-min Rain = 0
KCO2 192335Z 17006KT 23/05 A2983 RMK A01 T02250047  RH  031%=      5-min Rain = 0
KCO2 192336Z 17007KT 22/05 A2983 RMK A01 T02240047  RH  032%=      5-min Rain = 0
KCO2 192337Z 17007KT 22/05 A2983 RMK A01 T02230047  RH  032%=      5-min Rain = 0
KCO2 192338Z 17007KT 22/05 A2983 RMK A01 T02220047  RH  032%=      5-min Rain = 0
KCO2 192339Z 17008KT 22/05 A2983 RMK A01 T02220047  RH  032%=      5-min Rain = 0
KCO2 192340Z 17008KT 22/05 A2983 RMK A01 T02210047  RH  032%=      5-min Rain = 0
KCO2 192341Z 17007KT 22/05 A2983 RMK A01 T02210047  RH  032%=      5-min Rain = 0
KCO2 192342Z 17007KT 22/05 A2983 RMK A01 T02210047  RH  032%=      5-min Rain = 0
KCO2 192343Z 17008KT 22/05 A2983 RMK A01 T02200046  RH  032%=      5-min Rain = 0
KCO2 192344Z 17008KT 22/05 A2983 RMK A01 T02200046  RH  032%=      5-min Rain = 0
KCO2 192345Z 17008KT 22/05 A2983 RMK A01 T02200045  RH  032%=      5-min Rain = 0
KCO2 192346Z 17008KT 22/05 A2983 RMK A01 T02200045  RH  032%=      5-min Rain = 0
KCO2 192347Z 17008KT 22/04 A2983 RMK A01 T02200044  RH  032%=      5-min Rain = 0
KCO2 192348Z 17009KT 22/04 A2983 RMK A01 T02200044  RH  032%=      5-min Rain = 0
KCO2 192349Z 17008KT 22/04 A2983 RMK A01 T02210044  RH  032%=      5-min Rain = 0
KCO2 192350Z 17008KT 22/04 A2983 RMK A01 T02200044  RH  032%=      5-min Rain = 0
KCO2 192351Z 17008KT 22/04 A2983 RMK A01 T02200044  RH  032%=      5-min Rain = 0
KCO2 192352Z 17008KT 22/04 A2983 RMK A01 T02200044  RH  032%=      5-min Rain = 0
KCO2 192353Z 17009KT 22/04 A2983 RMK A01 T02190044  RH  032%=      5-min Rain = 0
KCO2 192354Z 17008KT 22/04 A2983 RMK A01 T02200044  RH  032%=      5-min Rain = 0
KCO2 192355Z 17008KT 22/04 A2983 RMK A01 T02200044  RH  032%=      5-min Rain = 0
KCO2 192356Z 17008KT 22/04 A2983 RMK A01 T02190044  RH  032%=      5-min Rain = 0
KCO2 192357Z 17008KT 22/04 A2983 RMK A01 T02180043  RH  032%=      5-min Rain = 0
KCO2 192358Z 17008KT 22/04 A2983 RMK A01 T02180044  RH  032%=      5-min Rain = 0
KCO2 192359Z 17007KT 22/04 A2983 RMK A01 T02170044  RH  032%=      5-min Rain = 0
KCO2 200000Z 17007KT 22/04 A2984 RMK A01 T02170044  RH  032%=      5-min Rain = 0
KCO2 200001Z 17007KT 22/04 A2984 RMK A01 T02150043  RH  032%=      5-min Rain = 0
KCO2 200002Z 16007KT 21/04 A2984 RMK A01 T02140044  RH  033%=      5-min Rain = 0
KCO2 200003Z 16006KT 21/04 A2984 RMK A01 T02120043  RH  033%=      5-min Rain = 0
KCO2 200004Z 16006KT 21/04 A2984 RMK A01 T02100043  RH  033%=      5-min Rain = 0
KCO2 200005Z 16006KT 21/04 A2984 RMK A01 T02070042  RH  034%=      5-min Rain = 0
KCO2 200006Z 16006KT 21/04 A2984 RMK A01 T02050042  RH  034%=      5-min Rain = 0
KCO2 200007Z 16006KT 20/04 A2984 RMK A01 T02030042  RH  035%=      5-min Rain = 0
KCO2 200008Z 16006KT 20/04 A2984 RMK A01 T02010042  RH  035%=      5-min Rain = 0
KCO2 200009Z 16006KT 20/04 A2984 RMK A01 T01980041  RH  035%=      5-min Rain = 0
KCO2 200010Z 15006KT 20/04 A2984 RMK A01 T01970041  RH  036%=      5-min Rain = 0
KCO2 200011Z 15006KT 20/04 A2984 RMK A01 T01950041  RH  036%=      5-min Rain = 0
KCO2 200012Z 16006KT 19/04 A2984 RMK A01 T01930041  RH  037%=      5-min Rain = 0
KCO2 200013Z 15006KT 19/04 A2984 RMK A01 T01930042  RH  037%=      5-min Rain = 0
KCO2 200014Z 15006KT 19/04 A2984 RMK A01 T01920041  RH  037%=      5-min Rain = 0
KCO2 200015Z 16007KT 19/04 A2984 RMK A01 T01910041  RH  037%=      5-min Rain = 0
KCO2 200016Z 15006KT 19/04 A2984 RMK A01 T01890042  RH  038%=      5-min Rain = 0
KCO2 200017Z 14007KT 19/04 A2984 RMK A01 T01870042  RH  038%=      5-min Rain = 0
KCO2 200018Z 14007KT 19/04 A2984 RMK A01 T01850042  RH  039%=      5-min Rain = 0
KCO2 200019Z 14006KT 18/04 A2984 RMK A01 T01820042  RH  039%=      5-min Rain = 0
KCO2 200020Z 15006KT 18/04 A2984 RMK A01 T01810043  RH  040%=      5-min Rain = 0
KCO2 200021Z 15006KT 18/04 A2984 RMK A01 T01800043  RH  040%=      5-min Rain = 0
KCO2 200022Z 15006KT 18/04 A2984 RMK A01 T01800044  RH  041%=      5-min Rain = 0
KCO2 200023Z 16007KT 18/05 A2984 RMK A01 T01810045  RH  040%=      5-min Rain = 0
KCO2 200024Z 15007KT 18/05 A2984 RMK A01 T01830045  RH  040%=      5-min Rain = 0
KCO2 200025Z 15007KT 18/04 A2984 RMK A01 T01830044  RH  040%=      5-min Rain = 0
KCO2 200026Z 15006KT 18/05 A2984 RMK A01 T01830045  RH  040%=      5-min Rain = 0
KCO2 200027Z 15006KT 18/05 A2984 RMK A01 T01820045  RH  040%=      5-min Rain = 0
KCO2 200028Z 14006KT 18/05 A2984 RMK A01 T01810045  RH  041%=      5-min Rain = 0
KCO2 200029Z 15006KT 18/05 A2984 RMK A01 T01800046  RH  041%=      5-min Rain = 0
KCO2 200030Z 14007KT 18/05 A2984 RMK A01 T01780046  RH  042%=      5-min Rain = 0
KCO2 200031Z 15006KT 18/05 A2984 RMK A01 T01780047  RH  042%=      5-min Rain = 0
KCO2 200032Z 15006KT 18/05 A2984 RMK A01 T01770046  RH  042%=      5-min Rain = 0
KCO2 200033Z 15007KT 18/05 A2984 RMK A01 T01760047  RH  042%=      5-min Rain = 0
KCO2 200034Z 15007KT 18/05 A2984 RMK A01 T01750046  RH  042%=      5-min Rain = 0
KCO2 200035Z 15007KT 18/05 A2984 RMK A01 T01750045  RH  042%=      5-min Rain = 0
KCO2 200036Z 15006KT 18/05 A2984 RMK A01 T01750045  RH  042%=      5-min Rain = 0
KCO2 200037Z 15006KT 17/05 A2984 RMK A01 T01740045  RH  042%=      5-min Rain = 0
KCO2 200038Z 15006KT 17/04 A2984 RMK A01 T01730044  RH  042%=      5-min Rain = 0
KCO2 200039Z 15006KT 17/04 A2984 RMK A01 T01720044  RH  043%=      5-min Rain = 0
KCO2 200040Z 15007KT 17/04 A2984 RMK A01 T01710044  RH  043%=      5-min Rain = 0
KCO2 200041Z 15007KT 17/04 A2984 RMK A01 T01700044  RH  043%=      5-min Rain = 0
KCO2 200042Z 15008KT 17/04 A2984 RMK A01 T01690044  RH  043%=      5-min Rain = 0
KCO2 200043Z 15007KT 17/04 A2984 RMK A01 T01690044  RH  043%=      5-min Rain = 0
KCO2 200044Z 15007KT 17/04 A2984 RMK A01 T01690044  RH  043%=      5-min Rain = 0
KCO2 200045Z 15008KT 17/04 A2984 RMK A01 T01690044  RH  043%=      5-min Rain = 0
KCO2 200046Z 15007KT 17/05 A2984 RMK A01 T01700045  RH  043%=      5-min Rain = 0
KCO2 200047Z 15008KT 17/05 A2984 RMK A01 T01710046  RH  043%=      5-min Rain = 0
KCO2 200048Z 16008KT 17/05 A2984 RMK A01 T01720046  RH  043%=      5-min Rain = 0
KCO2 200049Z 16007KT 17/05 A2985 RMK A01 T01730047  RH  043%=      5-min Rain = 0
KCO2 200050Z 16008KT 17/05 A2985 RMK A01 T01740049  RH  044%=      5-min Rain = 0
KCO2 200051Z 16008KT 18/05 A2985 RMK A01 T01750050  RH  044%=      5-min Rain = 0
KCO2 200052Z 16007KT 18/05 A2985 RMK A01 T01770051  RH  043%=      5-min Rain = 0
KCO2 200053Z 16008KT 18/05 A2985 RMK A01 T01790052  RH  043%=      5-min Rain = 0
KCO2 200054Z 16008KT 18/05 A2985 RMK A01 T01800053  RH  043%=      5-min Rain = 0
KCO2 200055Z 16007KT 18/05 A2985 RMK A01 T01810054  RH  043%=      5-min Rain = 0
KCO2 200056Z 16008KT 18/05 A2984 RMK A01 T01820054  RH  043%=      5-min Rain = 0
KCO2 200057Z 16008KT 18/06 A2984 RMK A01 T01830056  RH  043%=      5-min Rain = 0
KCO2 200058Z 16009KT 18/06 A2984 RMK A01 T01840058  RH  043%=      5-min Rain = 0
KCO2 200059Z 16008KT 19/06 A2984 RMK A01 T01870059  RH  043%=      5-min Rain = 0
KCO2 200100Z 16008KT 19/06 A2984 RMK A01 T01880059  RH  043%=      5-min Rain = 0
KCO2 200101Z 16008KT 19/06 A2984 RMK A01 T01880060  RH  043%=      5-min Rain = 0
KCO2 200102Z 16008KT 19/06 A2984 RMK A01 T01890061  RH  043%=      5-min Rain = 0
KCO2 200103Z 16008KT 19/06 A2984 RMK A01 T01900061  RH  043%=      5-min Rain = 0
KCO2 200104Z 16008KT 19/06 A2984 RMK A01 T01900060  RH  043%=      5-min Rain = 0
KCO2 200105Z 16009KT 19/06 A2984 RMK A01 T01900060  RH  043%=      5-min Rain = 0
KCO2 200106Z 16008KT 19/06 A2984 RMK A01 T01890060  RH  043%=      5-min Rain = 0
KCO2 200107Z 16008KT 19/06 A2984 RMK A01 T01880060  RH  043%=      5-min Rain = 0
KCO2 200108Z 16008KT 19/06 A2984 RMK A01 T01870060  RH  043%=      5-min Rain = 0
KCO2 200109Z 16007KT 19/06 A2984 RMK A01 T01860061  RH  044%=      5-min Rain = 0
KCO2 200110Z 16008KT 19/06 A2984 RMK A01 T01860061  RH  044%=      5-min Rain = 0
KCO2 200111Z 16008KT 18/06 A2984 RMK A01 T01840061  RH  044%=      5-min Rain = 0
KCO2 200112Z 16007KT 18/06 A2984 RMK A01 T01840061  RH  044%=      5-min Rain = 0
KCO2 200113Z 16007KT 18/06 A2984 RMK A01 T01840061  RH  045%=      5-min Rain = 0
KCO2 200114Z 16007KT 18/06 A2984 RMK A01 T01840062  RH  045%=      5-min Rain = 0
KCO2 200115Z 16008KT 18/06 A2984 RMK A01 T01830062  RH  045%=      5-min Rain = 0
KCO2 200116Z 15007KT 18/06 A2984 RMK A01 T01830062  RH  045%=      5-min Rain = 0
KCO2 200117Z 15007KT 18/06 A2984 RMK A01 T01830062  RH  045%=      5-min Rain = 0
KCO2 200118Z 15007KT 18/06 A2984 RMK A01 T01830063  RH  045%=      5-min Rain = 0
KCO2 200119Z 15007KT 18/06 A2984 RMK A01 T01820063  RH  046%=      5-min Rain = 0
KCO2 200120Z 15007KT 18/06 A2984 RMK A01 T01820063  RH  046%=      5-min Rain = 0
KCO2 200121Z 15007KT 18/06 A2984 RMK A01 T01810063  RH  046%=      5-min Rain = 0
KCO2 200122Z 15008KT 18/06 A2984 RMK A01 T01810063  RH  046%=      5-min Rain = 0
KCO2 200123Z 15007KT 18/06 A2984 RMK A01 T01810063  RH  046%=      5-min Rain = 0
KCO2 200124Z 15007KT 18/06 A2984 RMK A01 T01810063  RH  046%=      5-min Rain = 0
KCO2 200125Z 15007KT 18/06 A2985 RMK A01 T01800063  RH  046%=      5-min Rain = 0
KCO2 200126Z 15006KT 18/06 A2985 RMK A01 T01800063  RH  046%=      5-min Rain = 0
KCO2 200127Z 15007KT 18/06 A2985 RMK A01 T01790063  RH  046%=      5-min Rain = 0
KCO2 200128Z 15007KT 18/06 A2985 RMK A01 T01790063  RH  047%=      5-min Rain = 0
KCO2 200129Z 15008KT 18/06 A2985 RMK A01 T01790063  RH  047%=      5-min Rain = 0
KCO2 200130Z 15008KT 18/06 A2985 RMK A01 T01790063  RH  047%=      5-min Rain = 0
KCO2 200131Z 15008KT 18/06 A2985 RMK A01 T01790064  RH  047%=      5-min Rain = 0
KCO2 200132Z 14006KT 18/06 A2985 RMK A01 T01800064  RH  047%=      5-min Rain = 0
KCO2 200133Z 14007KT 18/06 A2985 RMK A01 T01800064  RH  047%=      5-min Rain = 0
KCO2 200134Z 14007KT 18/06 A2984 RMK A01 T01790064  RH  047%=      5-min Rain = 0
KCO2 200135Z 14008KT 18/06 A2984 RMK A01 T01780064  RH  047%=      5-min Rain = 0
KCO2 200136Z 14008KT 18/06 A2984 RMK A01 T01770064  RH  047%=      5-min Rain = 0
KCO2 200137Z 14008KT 18/06 A2984 RMK A01 T01770064  RH  048%=      5-min Rain = 0
KCO2 200138Z 14009KT 18/07 A2984 RMK A01 T01770065  RH  048%=      5-min Rain = 0
KCO2 200139Z 14007KT 18/06 A2985 RMK A01 T01760064  RH  048%=      5-min Rain = 0
KCO2 200140Z 14008KT 18/07 A2985 RMK A01 T01760065  RH  048%=      5-min Rain = 0
KCO2 200141Z 14007KT 18/07 A2985 RMK A01 T01750065  RH  048%=      5-min Rain = 0
KCO2 200142Z 15008KT 18/07 A2985 RMK A01 T01750065  RH  048%=      5-min Rain = 0
KCO2 200143Z 15007KT 18/07 A2985 RMK A01 T01750065  RH  048%=      5-min Rain = 0
KCO2 200144Z 15007KT 18/07 A2985 RMK A01 T01750065  RH  048%=      5-min Rain = 0
KCO2 200145Z 14007KT 18/07 A2985 RMK A01 T01750065  RH  048%=      5-min Rain = 0
KCO2 200146Z 15007KT 18/07 A2985 RMK A01 T01750065  RH  048%=      5-min Rain = 0
KCO2 200147Z 14007KT 18/07 A2985 RMK A01 T01750065  RH  048%=      5-min Rain = 0
KCO2 200148Z 14007KT 18/07 A2985 RMK A01 T01750066  RH  049%=      5-min Rain = 0
KCO2 200149Z 14006KT 18/07 A2985 RMK A01 T01750066  RH  049%=      5-min Rain = 0
KCO2 200150Z 14007KT 17/07 A2985 RMK A01 T01740066  RH  049%=      5-min Rain = 0
KCO2 200151Z 14006KT 17/07 A2985 RMK A01 T01740066  RH  049%=      5-min Rain = 0
KCO2 200152Z 14006KT 17/07 A2985 RMK A01 T01730066  RH  049%=      5-min Rain = 0
KCO2 200153Z 14006KT 17/07 A2985 RMK A01 T01730066  RH  050%=      5-min Rain = 0
KCO2 200154Z 14006KT 17/07 A2985 RMK A01 T01720066  RH  050%=      5-min Rain = 0
KCO2 200155Z 14007KT 17/07 A2985 RMK A01 T01710066  RH  050%=      5-min Rain = 0
KCO2 200156Z 14006KT 17/07 A2985 RMK A01 T01710066  RH  050%=      5-min Rain = 0
KCO2 200157Z 15006KT 17/07 A2985 RMK A01 T01710067  RH  050%=      5-min Rain = 0
KCO2 200158Z 15007KT 17/07 A2985 RMK A01 T01710067  RH  050%=      5-min Rain = 0
KCO2 200159Z 15008KT 17/07 A2985 RMK A01 T01710067  RH  050%=      5-min Rain = 0
KCO2 200200Z 15007KT 17/07 A2986 RMK A01 T01720067  RH  050%=      5-min Rain = 0
KCO2 200201Z 16007KT 17/07 A2986 RMK A01 T01730068  RH  050%=      5-min Rain = 0
KCO2 200202Z 16006KT 17/07 A2986 RMK A01 T01740068  RH  050%=      5-min Rain = 0
KCO2 200203Z 16007KT 18/07 A2986 RMK A01 T01750069  RH  050%=      5-min Rain = 0
KCO2 200204Z 16007KT 18/07 A2986 RMK A01 T01760069  RH  049%=      5-min Rain = 0
KCO2 200205Z 17007KT 18/07 A2986 RMK A01 T01770069  RH  049%=      5-min Rain = 0
KCO2 200206Z 16006KT 18/07 A2986 RMK A01 T01780070  RH  049%=      5-min Rain = 0
KCO2 200207Z 16006KT 18/07 A2986 RMK A01 T01790070  RH  049%=      5-min Rain = 0
KCO2 200208Z 16007KT 18/07 A2986 RMK A01 T01800070  RH  049%=      5-min Rain = 0
KCO2 200209Z 17008KT 18/07 A2986 RMK A01 T01810071  RH  049%=      5-min Rain = 0
KCO2 200210Z 17008KT 18/07 A2986 RMK A01 T01820071  RH  048%=      5-min Rain = 0
KCO2 200211Z 17008KT 18/07 A2986 RMK A01 T01840072  RH  048%=      5-min Rain = 0
KCO2 200212Z 16007KT 19/07 A2985 RMK A01 T01850072  RH  048%=      5-min Rain = 0
KCO2 200213Z 17008KT 19/07 A2985 RMK A01 T01860072  RH  047%=      5-min Rain = 0
KCO2 200214Z 16008KT 19/07 A2985 RMK A01 T01860072  RH  047%=      5-min Rain = 0
KCO2 200215Z 16007KT 19/07 A2985 RMK A01 T01860071  RH  047%=      5-min Rain = 0
KCO2 200216Z 17008KT 19/07 A2985 RMK A01 T01860072  RH  047%=      5-min Rain = 0
KCO2 200217Z 16007KT 19/07 A2985 RMK A01 T01870072  RH  047%=      5-min Rain = 0
KCO2 200218Z 17008KT 19/07 A2985 RMK A01 T01870072  RH  047%=      5-min Rain = 0
KCO2 200219Z 16008KT 19/07 A2985 RMK A01 T01870072  RH  047%=      5-min Rain = 0
KCO2 200220Z 16006KT 19/07 A2985 RMK A01 T01880072  RH  047%=      5-min Rain = 0
KCO2 200221Z 16008KT 19/07 A2985 RMK A01 T01880072  RH  047%=      5-min Rain = 0
KCO2 200222Z 16009KT 19/07 A2985 RMK A01 T01870072  RH  047%=      5-min Rain = 0
KCO2 200223Z 16008KT 19/07 A2985 RMK A01 T01870072  RH  047%=      5-min Rain = 0
KCO2 200224Z 17008KT 19/07 A2985 RMK A01 T01880073  RH  047%=      5-min Rain = 0
KCO2 200225Z 16009KT 19/07 A2985 RMK A01 T01870073  RH  047%=      5-min Rain = 0
KCO2 200226Z 16008KT 19/07 A2985 RMK A01 T01870073  RH  047%=      5-min Rain = 0
KCO2 200227Z 17007KT 19/07 A2985 RMK A01 T01870074  RH  048%=      5-min Rain = 0
KCO2 200228Z 16007KT 19/07 A2985 RMK A01 T01870074  RH  048%=      5-min Rain = 0
KCO2 200229Z 16008KT 19/07 A2985 RMK A01 T01870074  RH  048%=      5-min Rain = 0
KCO2 200230Z 16009KT 19/07 A2985 RMK A01 T01860074  RH  048%=      5-min Rain = 0
KCO2 200231Z 16008KT 19/07 A2985 RMK A01 T01860074  RH  048%=      5-min Rain = 0
KCO2 200232Z 16008KT 19/08 A2985 RMK A01 T01870075  RH  048%=      5-min Rain = 0
KCO2 200233Z 16008KT 19/07 A2985 RMK A01 T01870074  RH  048%=      5-min Rain = 0
KCO2 200234Z 16008KT 19/07 A2985 RMK A01 T01860074  RH  048%=      5-min Rain = 0
KCO2 200235Z 16007KT 19/07 A2986 RMK A01 T01860074  RH  048%=      5-min Rain = 0
KCO2 200236Z 15008KT 19/07 A2986 RMK A01 T01850074  RH  048%=      5-min Rain = 0
KCO2 200237Z 16007KT 18/07 A2986 RMK A01 T01840074  RH  049%=      5-min Rain = 0
KCO2 200238Z 16007KT 18/07 A2986 RMK A01 T01830074  RH  049%=      5-min Rain = 0
KCO2 200239Z 16007KT 18/07 A2986 RMK A01 T01810074  RH  050%=      5-min Rain = 0
KCO2 200240Z 16008KT 18/08 A2986 RMK A01 T01800075  RH  050%=      5-min Rain = 0
KCO2 200241Z 16008KT 18/08 A2986 RMK A01 T01800075  RH  050%=      5-min Rain = 0
KCO2 200242Z 16007KT 18/08 A2985 RMK A01 T01800075  RH  050%=      5-min Rain = 0
KCO2 200243Z 16007KT 18/08 A2985 RMK A01 T01800075  RH  050%=      5-min Rain = 0
KCO2 200244Z 16007KT 18/08 A2985 RMK A01 T01790075  RH  050%=      5-min Rain = 0
KCO2 200245Z 16007KT 18/08 A2985 RMK A01 T01790075  RH  051%=      5-min Rain = 0
KCO2 200246Z 16008KT 18/08 A2985 RMK A01 T01790076  RH  051%=      5-min Rain = 0
KCO2 200247Z 16008KT 18/08 A2985 RMK A01 T01780075  RH  051%=      5-min Rain = 0
KCO2 200248Z 16008KT 18/08 A2985 RMK A01 T01780076  RH  051%=      5-min Rain = 0
KCO2 200249Z 16007KT 18/08 A2985 RMK A01 T01780076  RH  051%=      5-min Rain = 0
KCO2 200250Z 16008KT 18/08 A2985 RMK A01 T01770076  RH  051%=      5-min Rain = 0
KCO2 200251Z 15008KT 18/08 A2985 RMK A01 T01770076  RH  052%=      5-min Rain = 0
KCO2 200252Z 16007KT 18/08 A2985 RMK A01 T01760076  RH  052%=      5-min Rain = 0
KCO2 200253Z 16008KT 18/08 A2985 RMK A01 T01760076  RH  052%=      5-min Rain = 0
KCO2 200254Z 16009KT 18/08 A2985 RMK A01 T01750076  RH  052%=      5-min Rain = 0
KCO2 200255Z 16008KT 18/08 A2985 RMK A01 T01760076  RH  052%=      5-min Rain = 0
KCO2 200256Z 16008KT 18/08 A2986 RMK A01 T01760076  RH  052%=      5-min Rain = 0
KCO2 200257Z 16008KT 18/08 A2986 RMK A01 T01750077  RH  052%=      5-min Rain = 0
KCO2 200258Z 16008KT 18/08 A2986 RMK A01 T01750076  RH  052%=      5-min Rain = 0
KCO2 200259Z 16008KT 17/08 A2986 RMK A01 T01740076  RH  053%=      5-min Rain = 0
KCO2 200300Z 16008KT 17/08 A2986 RMK A01 T01740077  RH  053%=      5-min Rain = 0
KCO2 200301Z 16008KT 17/08 A2986 RMK A01 T01740077  RH  053%=      5-min Rain = 0
KCO2 200302Z 16008KT 17/08 A2986 RMK A01 T01740077  RH  053%=      5-min Rain = 0
KCO2 200303Z 17008KT 18/08 A2986 RMK A01 T01750078  RH  053%=      5-min Rain = 0
KCO2 200304Z 16008G13KT 18/08 A2986 RMK A01 T01760078  RH  053%=      5-min Rain = 0
KCO2 200305Z 17009KT 18/08 A2986 RMK A01 T01770079  RH  053%=      5-min Rain = 0
KCO2 200306Z 16009KT 18/08 A2986 RMK A01 T01780079  RH  052%=      5-min Rain = 0
KCO2 200307Z 16010KT 18/08 A2986 RMK A01 T01780079  RH  052%=      5-min Rain = 0
KCO2 200308Z 16010KT 18/08 A2986 RMK A01 T01790079  RH  052%=      5-min Rain = 0
KCO2 200309Z 16009KT 18/08 A2986 RMK A01 T01800080  RH  052%=      5-min Rain = 0
KCO2 200310Z 17010KT 18/08 A2986 RMK A01 T01800080  RH  052%=      5-min Rain = 0
KCO2 200311Z 17009KT 18/08 A2986 RMK A01 T01800080  RH  052%=      5-min Rain = 0
KCO2 200312Z 17010KT 18/08 A2986 RMK A01 T01810080  RH  052%=      5-min Rain = 0
KCO2 200313Z 17010KT 18/08 A2986 RMK A01 T01810080  RH  052%=      5-min Rain = 0
KCO2 200314Z 17010KT 18/08 A2986 RMK A01 T01820081  RH  052%=      5-min Rain = 0
KCO2 200315Z 17011KT 18/08 A2986 RMK A01 T01820081  RH  052%=      5-min Rain = 0
KCO2 200316Z 17010KT 18/08 A2986 RMK A01 T01820081  RH  051%=      5-min Rain = 0
KCO2 200317Z 17009KT 18/08 A2986 RMK A01 T01830081  RH  051%=      5-min Rain = 0
KCO2 200318Z 17009KT 18/08 A2986 RMK A01 T01830081  RH  052%=      5-min Rain = 0
KCO2 200319Z 17010KT 18/08 A2986 RMK A01 T01820081  RH  052%=      5-min Rain = 0
KCO2 200320Z 17009KT 18/08 A2986 RMK A01 T01820082  RH  052%=      5-min Rain = 0
KCO2 200321Z 17010KT 18/08 A2986 RMK A01 T01820081  RH  052%=      5-min Rain = 0
KCO2 200322Z 17009KT 18/08 A2986 RMK A01 T01820082  RH  052%=      5-min Rain = 0
KCO2 200323Z 17010KT 18/08 A2986 RMK A01 T01820082  RH  052%=      5-min Rain = 0
KCO2 200324Z 17010KT 18/08 A2986 RMK A01 T01810082  RH  052%=      5-min Rain = 0
KCO2 200325Z 17010KT 18/08 A2986 RMK A01 T01810081  RH  052%=      5-min Rain = 0
KCO2 200326Z 17009KT 18/08 A2986 RMK A01 T01810082  RH  052%=      5-min Rain = 0
KCO2 200327Z 17008KT 18/08 A2986 RMK A01 T01800082  RH  052%=      5-min Rain = 0
KCO2 200328Z 17008KT 18/08 A2986 RMK A01 T01800082  RH  053%=      5-min Rain = 0
KCO2 200329Z 17009KT 18/08 A2986 RMK A01 T01790082  RH  053%=      5-min Rain = 0
KCO2 200330Z 17009KT 18/08 A2986 RMK A01 T01790082  RH  053%=      5-min Rain = 0
KCO2 200331Z 17009KT 18/08 A2987 RMK A01 T01780082  RH  053%=      5-min Rain = 0
KCO2 200332Z 17009KT 18/08 A2987 RMK A01 T01780082  RH  053%=      5-min Rain = 0
KCO2 200333Z 17009KT 18/08 A2987 RMK A01 T01770082  RH  053%=      5-min Rain = 0
KCO2 200334Z 17010KT 18/08 A2987 RMK A01 T01760082  RH  054%=      5-min Rain = 0
KCO2 200335Z 17009KT 18/08 A2987 RMK A01 T01770082  RH  054%=      5-min Rain = 0
KCO2 200336Z 17009KT 18/08 A2987 RMK A01 T01770082  RH  054%=      5-min Rain = 0
KCO2 200337Z 17009KT 18/08 A2987 RMK A01 T01760082  RH  054%=      5-min Rain = 0
KCO2 200338Z 17008KT 18/08 A2987 RMK A01 T01760082  RH  054%=      5-min Rain = 0
KCO2 200339Z 17008KT 18/08 A2987 RMK A01 T01760082  RH  054%=      5-min Rain = 0
KCO2 200340Z 17008KT 18/08 A2987 RMK A01 T01750082  RH  054%=      5-min Rain = 0
KCO2 200341Z 17008KT 17/08 A2987 RMK A01 T01740082  RH  055%=      5-min Rain = 0
KCO2 200342Z 17009KT 17/08 A2987 RMK A01 T01740082  RH  055%=      5-min Rain = 0
KCO2 200343Z 17007KT 17/08 A2987 RMK A01 T01740082  RH  055%=      5-min Rain = 0
KCO2 200344Z 17008KT 17/08 A2987 RMK A01 T01730082  RH  055%=      5-min Rain = 0
KCO2 200345Z 17006KT 17/08 A2987 RMK A01 T01720082  RH  055%=      5-min Rain = 0
KCO2 200346Z 17007KT 17/08 A2987 RMK A01 T01720082  RH  055%=      5-min Rain = 0
KCO2 200347Z 17006KT 17/08 A2987 RMK A01 T01710082  RH  056%=      5-min Rain = 0
KCO2 200348Z 17007KT 17/08 A2987 RMK A01 T01710082  RH  056%=      5-min Rain = 0
KCO2 200349Z 17007KT 17/08 A2987 RMK A01 T01710082  RH  056%=      5-min Rain = 0
KCO2 200350Z 17006KT 17/08 A2987 RMK A01 T01700082  RH  056%=      5-min Rain = 0
KCO2 200351Z 17007KT 17/08 A2987 RMK A01 T01690082  RH  056%=      5-min Rain = 0
KCO2 200352Z 17007KT 17/08 A2987 RMK A01 T01690082  RH  057%=      5-min Rain = 0
KCO2 200353Z 17007KT 17/08 A2987 RMK A01 T01680082  RH  057%=      5-min Rain = 0
KCO2 200354Z 17007KT 17/08 A2987 RMK A01 T01680082  RH  057%=      5-min Rain = 0
KCO2 200355Z 17006KT 17/08 A2987 RMK A01 T01680082  RH  057%=      5-min Rain = 0
KCO2 200356Z 17006KT 17/08 A2987 RMK A01 T01680083  RH  057%=      5-min Rain = 0
KCO2 200357Z 17007KT 17/08 A2987 RMK A01 T01670082  RH  057%=      5-min Rain = 0
KCO2 200358Z 17007KT 17/08 A2987 RMK A01 T01670082  RH  057%=      5-min Rain = 0
KCO2 200359Z 17008KT 17/08 A2987 RMK A01 T01660083  RH  058%=      5-min Rain = 0
KCO2 200400Z 17006KT 17/08 A2987 RMK A01 T01660083  RH  058%=      5-min Rain = 0
KCO2 200401Z 17007KT 17/08 A2987 RMK A01 T01660083  RH  058%=      5-min Rain = 0
KCO2 200402Z 17007KT 17/08 A2987 RMK A01 T01650083  RH  058%=      5-min Rain = 0
KCO2 200403Z 17007KT 17/08 A2987 RMK A01 T01650083  RH  058%=      5-min Rain = 0
KCO2 200404Z 17008KT 17/08 A2987 RMK A01 T01650083  RH  058%=      5-min Rain = 0
KCO2 200405Z 17008KT 17/08 A2987 RMK A01 T01650083  RH  058%=      5-min Rain = 0
KCO2 200406Z 17008KT 17/08 A2987 RMK A01 T01650084  RH  059%=      5-min Rain = 0
KCO2 200407Z 17008KT 17/08 A2987 RMK A01 T01660084  RH  058%=      5-min Rain = 0
KCO2 200408Z 17007KT 17/09 A2987 RMK A01 T01680085  RH  058%=      5-min Rain = 0
KCO2 200409Z 17007KT 17/09 A2987 RMK A01 T01690085  RH  058%=      5-min Rain = 0
KCO2 200410Z 17008KT 17/09 A2987 RMK A01 T01690085  RH  058%=      5-min Rain = 0
KCO2 200411Z 17008KT 17/09 A2987 RMK A01 T01690085  RH  058%=      5-min Rain = 0
KCO2 200412Z 17008KT 17/09 A2987 RMK A01 T01700086  RH  058%=      5-min Rain = 0
KCO2 200413Z 18008KT 17/09 A2987 RMK A01 T01710087  RH  057%=      5-min Rain = 0
KCO2 200414Z 17009KT 17/09 A2987 RMK A01 T01720087  RH  057%=      5-min Rain = 0
KCO2 200415Z 17009KT 17/09 A2987 RMK A01 T01720087  RH  057%=      5-min Rain = 0
KCO2 200416Z 18009KT 17/09 A2987 RMK A01 T01730087  RH  057%=      5-min Rain = 0
KCO2 200417Z 18008KT 17/09 A2987 RMK A01 T01730088  RH  057%=      5-min Rain = 0
KCO2 200418Z 18009KT 17/09 A2987 RMK A01 T01740088  RH  057%=      5-min Rain = 0
KCO2 200419Z 18010KT 18/09 A2987 RMK A01 T01750089  RH  057%=      5-min Rain = 0
KCO2 200420Z 17010KT 18/09 A2987 RMK A01 T01750089  RH  057%=      5-min Rain = 0
KCO2 200421Z 18009KT 18/09 A2987 RMK A01 T01760090  RH  057%=      5-min Rain = 0
KCO2 200422Z 17010KT 18/09 A2986 RMK A01 T01760090  RH  057%=      5-min Rain = 0
KCO2 200423Z 17010KT 18/09 A2986 RMK A01 T01770090  RH  057%=      5-min Rain = 0
KCO2 200424Z 18009KT 18/09 A2987 RMK A01 T01780090  RH  057%=      5-min Rain = 0
KCO2 200425Z 17010KT 18/09 A2987 RMK A01 T01780090  RH  057%=      5-min Rain = 0
KCO2 200426Z 18010KT 18/09 A2987 RMK A01 T01780091  RH  057%=      5-min Rain = 0
KCO2 200427Z 18009KT 18/09 A2987 RMK A01 T01770091  RH  057%=      5-min Rain = 0
KCO2 200428Z 18009KT 18/09 A2987 RMK A01 T01780091  RH  057%=      5-min Rain = 0
KCO2 200429Z 17010KT 18/09 A2987 RMK A01 T01770091  RH  057%=      5-min Rain = 0
KCO2 200430Z 17009KT 18/09 A2987 RMK A01 T01770091  RH  057%=      5-min Rain = 0
KCO2 200431Z 17009KT 18/09 A2987 RMK A01 T01760091  RH  057%=      5-min Rain = 0
KCO2 200432Z 17008KT 18/09 A2987 RMK A01 T01760091  RH  058%=      5-min Rain = 0
KCO2 200433Z 17008KT 18/09 A2986 RMK A01 T01760092  RH  058%=      5-min Rain = 0
KCO2 200434Z 18009KT 18/09 A2986 RMK A01 T01750092  RH  058%=      5-min Rain = 0
KCO2 200435Z 17008KT 18/09 A2986 RMK A01 T01750092  RH  058%=      5-min Rain = 0
KCO2 200436Z 17008KT 18/09 A2986 RMK A01 T01750092  RH  058%=      5-min Rain = 0
KCO2 200437Z 17008KT 17/09 A2986 RMK A01 T01740092  RH  058%=      5-min Rain = 0
KCO2 200438Z 17008KT 17/09 A2986 RMK A01 T01740092  RH  059%=      5-min Rain = 0
KCO2 200439Z 17007KT 17/09 A2986 RMK A01 T01740092  RH  059%=      5-min Rain = 0
KCO2 200440Z 17008KT 17/09 A2986 RMK A01 T01740092  RH  059%=      5-min Rain = 0
KCO2 200441Z 17006KT 17/09 A2986 RMK A01 T01730092  RH  059%=      5-min Rain = 0
KCO2 200442Z 17007KT 17/09 A2986 RMK A01 T01730092  RH  059%=      5-min Rain = 0
KCO2 200443Z 17008KT 17/09 A2986 RMK A01 T01720092  RH  059%=      5-min Rain = 0
KCO2 200444Z 16006KT 17/09 A2986 RMK A01 T01720092  RH  059%=      5-min Rain = 0
KCO2 200445Z 16006KT 17/09 A2986 RMK A01 T01720092  RH  059%=      5-min Rain = 0
KCO2 200446Z 16007KT 17/09 A2986 RMK A01 T01710092  RH  060%=      5-min Rain = 0
KCO2 200447Z 16007KT 17/09 A2986 RMK A01 T01710092  RH  060%=      5-min Rain = 0
KCO2 200448Z 16007KT 17/09 A2986 RMK A01 T01710092  RH  060%=      5-min Rain = 0
KCO2 200449Z 16006KT 17/09 A2986 RMK A01 T01710092  RH  060%=      5-min Rain = 0
KCO2 200450Z 16007KT 17/09 A2986 RMK A01 T01710092  RH  060%=      5-min Rain = 0
KCO2 200451Z 16007KT 17/09 A2986 RMK A01 T01710093  RH  060%=      5-min Rain = 0
KCO2 200452Z 16006KT 17/09 A2986 RMK A01 T01710093  RH  060%=      5-min Rain = 0
KCO2 200453Z 16007KT 17/09 A2986 RMK A01 T01700093  RH  060%=      5-min Rain = 0
KCO2 200454Z 16007KT 17/09 A2986 RMK A01 T01700092  RH  060%=      5-min Rain = 0
KCO2 200455Z 16007KT 17/09 A2986 RMK A01 T01690093  RH  061%=      5-min Rain = 0
KCO2 200456Z 16006KT 17/09 A2986 RMK A01 T01690092  RH  060%=      5-min Rain = 0
KCO2 200457Z 16006KT 17/09 A2986 RMK A01 T01690092  RH  061%=      5-min Rain = 0
KCO2 200458Z 17006KT 17/09 A2986 RMK A01 T01690093  RH  061%=      5-min Rain = 0
KCO2 200459Z 16006KT 17/09 A2986 RMK A01 T01680092  RH  061%=      5-min Rain = 0
KCO2 200500Z 16006KT 17/09 A2986 RMK A01 T01680093  RH  061%=      5-min Rain = 0
KCO2 200501Z 16006KT 17/09 A2986 RMK A01 T01680092  RH  061%=      5-min Rain = 0
KCO2 200502Z 16006KT 17/09 A2986 RMK A01 T01680092  RH  061%=      5-min Rain = 0
KCO2 200503Z 16006KT 17/09 A2986 RMK A01 T01680092  RH  061%=      5-min Rain = 0
KCO2 200504Z 16005KT 17/09 A2986 RMK A01 T01680092  RH  061%=      5-min Rain = 0
KCO2 200505Z 16005KT 17/09 A2986 RMK A01 T01670092  RH  061%=      5-min Rain = 0
KCO2 200506Z 16005KT 17/09 A2987 RMK A01 T01660091  RH  061%=      5-min Rain = 0
KCO2 200507Z 15005KT 17/09 A2987 RMK A01 T01650091  RH  062%=      5-min Rain = 0
KCO2 200508Z 16005KT 16/09 A2986 RMK A01 T01640091  RH  062%=      5-min Rain = 0
KCO2 200509Z 16005KT 16/09 A2986 RMK A01 T01630091  RH  062%=      5-min Rain = 0
KCO2 200510Z 15005KT 16/09 A2986 RMK A01 T01620090  RH  062%=      5-min Rain = 0
KCO2 200511Z 16006KT 16/09 A2986 RMK A01 T01610090  RH  063%=      5-min Rain = 0
KCO2 200512Z 16005KT 16/09 A2986 RMK A01 T01610090  RH  063%=      5-min Rain = 0
KCO2 200513Z 16006KT 16/09 A2986 RMK A01 T01610090  RH  063%=      5-min Rain = 0
KCO2 200514Z 16005KT 16/09 A2987 RMK A01 T01600090  RH  063%=      5-min Rain = 0
KCO2 200515Z 16005KT 16/09 A2987 RMK A01 T01590090  RH  063%=      5-min Rain = 0
KCO2 200516Z 16005KT 16/09 A2987 RMK A01 T01580090  RH  064%=      5-min Rain = 0
KCO2 200517Z 17006KT 16/09 A2987 RMK A01 T01580090  RH  064%=      5-min Rain = 0
KCO2 200518Z 17006KT 16/09 A2987 RMK A01 T01580090  RH  064%=      5-min Rain = 0
KCO2 200519Z 17006KT 16/09 A2987 RMK A01 T01580091  RH  064%=      5-min Rain = 0
KCO2 200520Z 17006KT 16/09 A2987 RMK A01 T01580090  RH  064%=      5-min Rain = 0
KCO2 200521Z 17006KT 16/09 A2987 RMK A01 T01580091  RH  064%=      5-min Rain = 0
KCO2 200522Z 17006KT 16/09 A2987 RMK A01 T01580091  RH  064%=      5-min Rain = 0
KCO2 200523Z 17006KT 16/09 A2987 RMK A01 T01580091  RH  064%=      5-min Rain = 0
KCO2 200524Z 17005KT 16/09 A2987 RMK A01 T01580091  RH  064%=      5-min Rain = 0
KCO2 200525Z 17005KT 16/09 A2987 RMK A01 T01590091  RH  064%=      5-min Rain = 0
KCO2 200526Z 17006KT 16/09 A2987 RMK A01 T01590092  RH  064%=      5-min Rain = 0
KCO2 200527Z 17006KT 16/09 A2987 RMK A01 T01590092  RH  064%=      5-min Rain = 0
KCO2 200528Z 17006KT 16/09 A2987 RMK A01 T01600092  RH  064%=      5-min Rain = 0
KCO2 200529Z 17006KT 16/09 A2987 RMK A01 T01590091  RH  064%=      5-min Rain = 0
KCO2 200530Z 17006KT 16/09 A2987 RMK A01 T01590091  RH  064%=      5-min Rain = 0
KCO2 200531Z 17006KT 16/09 A2987 RMK A01 T01580091  RH  064%=      5-min Rain = 0
KCO2 200532Z 17006KT 16/09 A2987 RMK A01 T01580091  RH  065%=      5-min Rain = 0
KCO2 200533Z 17006KT 16/09 A2987 RMK A01 T01570091  RH  065%=      5-min Rain = 0
KCO2 200534Z 17006KT 16/09 A2987 RMK A01 T01560091  RH  065%=      5-min Rain = 0
KCO2 200535Z 17006KT 16/09 A2987 RMK A01 T01560091  RH  065%=      5-min Rain = 0
KCO2 200536Z 17006KT 16/09 A2987 RMK A01 T01560091  RH  065%=      5-min Rain = 0
KCO2 200537Z 17006KT 16/09 A2987 RMK A01 T01550091  RH  066%=      5-min Rain = 0
KCO2 200538Z 17006KT 16/09 A2987 RMK A01 T01550092  RH  066%=      5-min Rain = 0
KCO2 200539Z 17006KT 16/09 A2987 RMK A01 T01550092  RH  066%=      5-min Rain = 0
KCO2 200540Z 17006KT 16/09 A2987 RMK A01 T01550092  RH  066%=      5-min Rain = 0
KCO2 200541Z 17006KT 16/09 A2987 RMK A01 T01550092  RH  066%=      5-min Rain = 0
KCO2 200542Z 18006KT 16/09 A2987 RMK A01 T01550092  RH  066%=      5-min Rain = 0
KCO2 200543Z 18006KT 16/09 A2987 RMK A01 T01550092  RH  066%=      5-min Rain = 0
KCO2 200544Z 18006KT 16/09 A2987 RMK A01 T01550092  RH  066%=      5-min Rain = 0
KCO2 200545Z 18006KT 16/09 A2987 RMK A01 T01550093  RH  066%=      5-min Rain = 0
KCO2 200546Z 18006KT 16/09 A2987 RMK A01 T01550093  RH  067%=      5-min Rain = 0
KCO2 200547Z 18006KT 15/09 A2987 RMK A01 T01540093  RH  067%=      5-min Rain = 0
KCO2 200548Z 18007KT 15/09 A2987 RMK A01 T01540093  RH  067%=      5-min Rain = 0
KCO2 200549Z 18006KT 15/09 A2987 RMK A01 T01540093  RH  067%=      5-min Rain = 0
KCO2 200550Z 18007KT 16/09 A2987 RMK A01 T01550094  RH  067%=      5-min Rain = 0
KCO2 200551Z 18007KT 16/10 A2987 RMK A01 T01560095  RH  067%=      5-min Rain = 0
KCO2 200552Z 18008KT 16/10 A2987 RMK A01 T01560095  RH  067%=      5-min Rain = 0
KCO2 200553Z 18007KT 16/10 A2987 RMK A01 T01560095  RH  067%=      5-min Rain = 0
KCO2 200554Z 18009KT 16/10 A2987 RMK A01 T01570096  RH  067%=      5-min Rain = 0
KCO2 200555Z 18008KT 16/10 A2987 RMK A01 T01580097  RH  067%=      5-min Rain = 0
KCO2 200556Z 18009KT 16/10 A2987 RMK A01 T01590097  RH  067%=      5-min Rain = 0
KCO2 200557Z 18009KT 16/10 A2987 RMK A01 T01600098  RH  067%=      5-min Rain = 0
KCO2 200558Z 18008KT 16/10 A2987 RMK A01 T01620099  RH  066%=      5-min Rain = 0
KCO2 200559Z 18009KT 16/10 A2987 RMK A01 T01620099  RH  066%=      5-min Rain = 0

Page generated in 0.0792 seconds.